[{"header": {"dx": 0.06612293990616946, "dy": 0.0552356325346848, "nx": 98, "ny": 59, "la1": 35.046912555036876, "la2": 31.78801023549047, "lo1": -121.43107172385933, "lo2": -114.95102361305473, "refTime": "2026040916", "parameterCategory": 1, "parameterNumber": 2}, "data": [3.07, 3.07, 3.07, 3.07, 2.5, 2.5, 2.5, 1.9, 1.9, 1.24, 0.6, 0.63, 1.79, 2.24, 2.24, 2.68, 2.68, 2.68, 3.13, 3.13, 2.68, 1.79, -1.34, -2.4, -2.98, -2.53, -1.98, -2.21, -2.4, -2.68, -2.68, -2.4, -2.21, -1.4, -0.99, 0.0, 0.0, 0.0, 0.0, 1.26, 2.54, 4.34, 6.0, 7.44, 9.3, 11.28, 13.51, 14.13, 12.89, 8.4, 4.47, 5.29, 6.94, 7.21, 7.76, 8.4, 8.63, 9.03, 9.9, 10.01, 10.68, 10.45, 9.97, 9.54, 9.06, 9.49, 9.75, 10.25, 11.18, 11.37, 11.61, 11.18, 10.45, 9.97, 9.68, 8.8, 8.45, 6.71, 5.36, 3.58, 2.4, 1.9, 0.0, 0.0, 0.0, 1.0, 2.4, 3.39, 4.57, 6.16, 7.76, 8.05, 8.05, 8.4, 7.35, 6.02, 5.36, 4.02, 3.07, 3.07, 3.07, 3.07, 2.5, 2.5, 2.5, 1.88, 1.61, 1.49, 0.8, 1.26, 1.26, 2.0, 3.13, 3.13, 2.68, 3.58, 3.58, 2.4, 3.13, 2.24, 2.24, -3.13, -2.97, -2.98, -2.98, -2.21, -2.4, -2.24, -2.4, -1.58, -1.2, 0.0, 0.0, 0.99, 1.13, 1.13, 0.99, 2.21, 3.35, 5.36, 7.21, 7.82, 10.12, 11.76, 12.78, 11.87, 8.05, 4.47, 4.57, 6.02, 7.12, 6.64, 7.28, 8.05, 9.03, 9.6, 10.43, 10.43, 10.68, 10.68, 10.25, 9.97, 9.54, 9.33, 9.75, 10.68, 11.18, 12.09, 12.09, 11.66, 11.36, 10.45, 10.14, 9.7, 9.35, 6.71, 5.36, 3.58, 2.4, 1.9, 0.0, 0.0, 0.0, 1.0, 2.4, 3.39, 4.57, 6.16, 7.76, 8.05, 8.05, 8.4, 7.35, 6.02, 5.36, 4.02, 3.07, 3.07, 3.07, 3.07, 2.21, 2.21, 2.21, 1.88, 1.88, 1.2, 1.24, 0.8, 2.4, 2.4, 2.4, 2.97, 2.97, 3.39, 3.39, 3.6, 2.97, 3.13, 0.0, -2.68, -3.58, -3.13, -3.39, -2.97, -2.4, -2.24, -2.0, -1.0, 0.0, 0.0, 2.21, 3.16, 3.16, 2.95, 2.76, 3.35, 4.74, 6.95, 8.46, 10.01, 10.34, 11.2, 10.66, 8.3, 6.26, 5.75, 6.02, 6.7, 7.2, 7.42, 7.32, 8.05, 9.03, 9.9, 10.43, 10.68, 11.18, 11.18, 10.68, 10.18, 9.49, 9.49, 10.43, 10.85, 11.37, 11.87, 12.09, 12.27, 11.52, 11.15, 10.7, 9.83, 9.83, 8.05, 5.31, 3.9, 2.8, 1.2, 0.0, 0.0, -0.99, 0.0, 1.0, 2.98, 5.2, 7.42, 9.03, 9.05, 8.42, 7.44, 6.16, 5.81, 5.36, 4.92, 3.07, 3.07, 3.07, 2.79, 2.53, 2.21, 2.21, 1.88, 1.61, 1.16, 1.2, 1.24, 2.21, 2.21, 2.53, 2.98, 3.35, 3.6, 3.6, 3.47, 3.39, 3.2, 1.9, -1.58, -2.4, -3.58, -2.68, -2.68, -2.4, -1.79, -1.79, -1.2, 0.0, 1.6, 3.48, 4.84, 4.43, 5.37, 4.26, 4.96, 7.18, 9.17, 9.56, 9.27, 9.67, 9.9, 9.26, 8.49, 8.01, 8.01, 7.45, 8.06, 7.76, 7.82, 8.05, 8.43, 8.95, 9.9, 10.25, 10.68, 10.68, 11.11, 10.43, 10.43, 10.0, 10.0, 10.55, 10.79, 11.06, 11.47, 12.8, 12.58, 11.52, 10.73, 10.28, 9.8, 9.83, 8.94, 6.26, 3.6, 2.21, 1.2, 0.0, -1.13, -0.98, 0.0, 0.99, 3.48, 6.11, 9.05, 9.67, 8.68, 7.44, 6.16, 5.36, 5.81, 6.26, 6.26, 3.07, 3.07, 3.07, 2.79, 2.53, 2.21, 2.21, 1.84, 1.84, 1.16, 1.16, 1.0, 1.2, 2.53, 2.84, 3.16, 2.84, 3.58, 3.58, 2.84, 3.16, 1.8, 0.0, 0.0, -1.2, -2.53, -2.21, -3.13, -2.68, -1.34, 0.89, 0.0, 0.0, 1.66, 4.74, 5.06, 5.37, 6.32, 5.64, 6.57, 7.36, 7.97, 8.43, 8.82, 9.24, 10.25, 10.28, 10.73, 10.28, 9.36, 8.8, 8.56, 8.3, 8.0, 8.4, 8.95, 9.75, 9.75, 10.18, 10.25, 10.25, 10.43, 10.15, 10.0, 10.04, 10.23, 10.55, 10.23, 10.66, 11.83, 12.7, 13.29, 11.75, 11.15, 10.28, 8.82, 8.45, 8.05, 6.26, 3.2, 1.98, 1.13, 0.0, 0.0, -0.88, 0.0, 3.35, 6.11, 8.38, 9.0, 8.68, 7.44, 5.6, 4.47, 4.38, 5.81, 6.71, 6.65, 3.07, 3.07, 2.79, 2.79, 2.79, 2.53, 2.53, 2.23, 1.84, 1.84, 1.16, 1.2, 1.2, 2.21, 2.84, 3.16, 2.95, 3.79, 3.79, 3.63, 2.76, 1.08, 0.0, 0.0, 0.0, 0.0, 0.0, 0.0, 0.0, 0.0, 1.34, 1.26, 1.98, 4.11, 5.15, 5.15, 5.15, 6.18, 5.69, 4.2, 4.96, 6.32, 6.8, 8.56, 9.97, 10.89, 11.36, 11.06, 10.25, 9.39, 8.9, 8.8, 8.63, 8.56, 9.06, 9.49, 9.54, 9.49, 9.75, 10.25, 10.18, 9.9, 9.6, 9.65, 10.04, 10.23, 10.55, 9.27, 10.04, 11.6, 12.98, 13.07, 13.23, 12.74, 10.73, 8.94, 7.55, 6.71, 6.71, 3.35, 2.0, 1.83, 1.99, 0.0, 0.0, 1.73, 4.96, 7.59, 8.31, 7.35, 6.44, 5.51, 4.02, 2.97, 4.02, 5.81, 7.37, 6.94, 3.45, 3.45, 3.14, 3.14, 2.79, 2.53, 2.23, 2.23, 1.6, 1.8, 1.13, 0.61, 1.2, 2.21, 3.16, 3.16, 3.79, 3.91, 4.29, 4.74, 4.81, 4.6, 3.35, 1.27, 0.0, 0.0, 0.0, 0.0, -2.0, -1.6, 0.0, 0.0, 2.4, 4.6, 5.82, 6.0, 5.82, 6.64, 4.46, 1.7, 2.82, 4.14, 5.31, 7.81, 9.63, 9.24, 9.54, 9.7, 8.9, 8.94, 8.49, 8.01, 8.77, 8.8, 8.8, 9.24, 9.7, 9.24, 9.54, 9.97, 9.75, 8.95, 9.49, 9.9, 9.6, 10.15, 10.15, 9.49, 9.9, 11.37, 12.53, 13.01, 13.09, 13.65, 12.41, 10.25, 8.45, 7.55, 8.49, 9.24, 3.63, 3.47, 2.8, 1.73, 2.54, 3.61, 6.57, 8.31, 7.41, 5.21, 3.13, 2.54, 2.4, 2.0, 3.58, 6.02, 7.21, 6.7, 3.6, 3.35, 3.35, 3.14, 3.14, 3.14, 2.23, 2.23, 1.8, 1.58, 1.11, 0.59, 0.98, 2.48, 4.09, 3.16, 3.79, 5.15, 5.15, 5.58, 6.02, 6.26, 6.26, 5.29, 4.0, 3.6, 2.53, 0.0, -2.0, -2.0, 0.0, 0.0, 1.55, 4.74, 5.46, 6.4, 5.75, 5.51, 4.02, 2.24, 0.0, 2.8, 5.03, 6.63, 6.64, 6.58, 6.71, 7.6, 7.6, 8.05, 7.15, 7.6, 8.01, 8.45, 8.9, 9.35, 9.36, 9.8, 9.8, 9.7, 9.54, 9.06, 9.54, 9.97, 9.33, 10.18, 10.68, 9.97, 9.7, 10.6, 11.84, 12.86, 13.39, 13.83, 12.41, 10.63, 10.16, 9.7, 11.18, 12.49, 9.83, 4.01, 3.11, 3.79, 3.8, 5.28, 6.51, 7.35, 6.8, 3.58, -0.0, -0.0, -0.0, 2.24, 4.38, 6.7, 7.12, 6.16, 3.6, 3.35, 3.35, 3.35, 3.14, 2.84, 2.84, 2.51, 2.48, 1.76, 1.73, 1.07, 1.4, 1.96, 3.0, 2.8, 3.97, 5.06, 5.15, 4.89, 5.2, 6.71, 6.71, 6.64, 5.51, 4.92, 3.13, 0.0, -1.8, 0.0, 1.7, 1.41, 3.22, 4.84, 5.2, 5.6, 6.0, 5.36, 1.8, -2.0, -0.0, 3.13, 5.09, 5.64, 5.36, 3.9, 5.2, 6.14, 6.2, 6.65, 7.15, 6.71, 7.15, 8.05, 8.49, 8.94, 9.39, 9.39, 9.8, 9.8, 9.8, 9.36, 9.36, 9.24, 9.06, 9.97, 11.06, 10.6, 9.8, 10.25, 11.6, 12.94, 13.86, 12.96, 12.05, 11.15, 10.7, 11.18, 12.96, 13.86, 12.94, 5.72, 4.01, 4.36, 5.0, 6.01, 6.35, 7.44, 6.28, 3.58, 1.2, 1.0, 1.26, 3.13, 5.51, 7.21, 6.8, 5.2, 3.6, 3.35, 3.35, 3.35, 3.35, 2.84, 2.84, 2.84, 2.86, 2.2, 2.36, 2.8, 2.8, 2.29, 1.75, 2.69, 3.81, 3.49, 3.7, 3.52, 3.8, 4.14, 5.03, 5.37, 4.74, 4.09, 3.13, 0.0, 1.8, 3.16, 3.16, 3.13, 3.58, 4.0, 5.36, 5.81, 5.36, 1.98, -0.0, -0.0, -0.0, 0.99, 3.39, 3.47, 3.47, 3.39, 3.39, 4.38, 5.51, 6.45, 6.51, 7.1, 7.15, 7.6, 8.05, 8.94, 9.39, 9.39, 9.39, 9.83, 9.83, 9.39, 9.39, 8.01, 8.8, 9.7, 11.15, 10.26, 9.83, 10.28, 12.07, 12.94, 13.84, 13.41, 12.52, 12.05, 11.52, 11.36, 11.99, 13.84, 14.74, 11.86, 5.06, 4.43, 5.09, 5.69, 6.64, 6.94, 6.55, 5.36, 3.95, 2.97, 3.13, 4.34, 6.7, 7.76, 6.7, 4.4, 3.6, 3.35, 3.35, 3.72, 3.72, 3.43, 3.16, 2.86, 3.15, 2.84, 2.82, 3.45, 4.47, 4.47, 4.68, 3.91, 3.63, 2.75, 2.75, 2.89, 3.39, 3.51, 3.49, 2.83, 2.49, 3.16, 3.2, 3.13, 3.58, 4.02, 2.53, -0.0, -0.0, -0.0, 2.23, 4.66, 3.16, -0.0, -0.0, -0.0, -0.0, 0.99, 1.2, 3.13, 3.13, 2.68, 3.13, 3.9, 4.82, 5.51, 6.94, 7.85, 8.01, 8.05, 8.49, 8.94, 9.8, 9.24, 9.24, 9.24, 8.94, 8.05, 7.1, 6.94, 7.85, 9.24, 10.16, 10.25, 10.28, 10.6, 11.84, 12.66, 13.56, 13.23, 12.79, 13.09, 11.95, 11.09, 11.5, 12.8, 14.03, 13.34, 8.91, 4.01, 3.79, 5.05, 6.0, 6.79, 6.36, 6.07, 5.31, 4.92, 4.47, 5.09, 7.2, 8.3, 6.7, 3.9, 3.6, 3.35, 3.72, 3.72, 3.72, 3.43, 3.43, 3.16, 3.48, 3.49, 3.47, 4.12, 5.08, 6.23, 6.95, 6.28, 4.55, 4.29, 4.59, 5.59, 5.59, 4.94, 4.17, 5.01, 4.24, 4.92, 5.81, 3.09, 4.34, 3.6, 1.8, -0.0, -1.08, -0.98, -0.0, -0.0, -0.0, -0.0, -0.0, 0.98, 0.98, -0.0, -0.0, 1.79, 2.24, 2.24, 4.02, 4.92, 5.36, 6.26, 6.26, 7.55, 8.01, 8.45, 8.94, 9.39, 9.83, 8.9, 7.12, 5.73, 4.82, 4.6, 4.19, 4.98, 6.21, 8.3, 10.18, 10.45, 10.28, 9.97, 10.52, 11.3, 11.72, 12.04, 12.04, 12.56, 11.75, 10.63, 10.73, 11.3, 12.45, 12.27, 11.06, 4.29, 3.35, 4.46, 5.46, 6.0, 6.28, 6.79, 6.07, 5.31, 4.02, 5.09, 7.35, 8.4, 6.7, 4.34, 3.6, 3.6, 3.72, 3.88, 3.88, 3.64, 3.78, 3.48, 3.48, 3.79, 4.12, 4.45, 5.08, 6.28, 7.61, 8.3, 7.87, 6.97, 6.94, 7.87, 8.79, 9.77, 9.83, 9.39, 8.87, 8.87, 9.32, 9.32, 7.52, 4.92, 4.92, 2.98, -0.0, -1.13, -0.99, -1.4, -1.2, -0.0, -0.0, -0.0, -0.0, -0.0, -0.0, -0.0, 2.24, 2.53, 3.16, 4.46, 6.07, 6.58, 5.75, 6.65, 7.15, 7.6, 8.49, 8.41, 9.29, 8.41, 3.39, -1.9, -0.0, 0.96, 2.6, 2.99, 4.43, 6.44, 8.32, 10.04, 9.49, 8.33, 8.05, 8.33, 8.95, 9.65, 10.28, 10.63, 10.23, 9.65, 9.52, 10.09, 9.45, 10.85, 11.52, 10.96, 5.37, 5.37, 5.06, 4.46, 4.84, 6.28, 6.28, 5.16, 4.85, 5.59, 7.35, 8.3, 7.37, 5.73, 3.6, 4.11, 3.88, 3.88, 3.88, 4.0, 4.0, 4.0, 4.07, 4.11, 4.43, 4.45, 5.37, 5.95, 7.35, 8.28, 8.79, 8.64, 8.77, 8.79, 9.77, 10.67, 11.16, 11.62, 11.62, 11.61, 11.57, 11.57, 10.22, 8.47, 6.71, 6.26, 3.6, -0.0, -0.0, -0.0, -0.0, -0.0, -0.0, -0.0, -0.0, -0.0, -0.0, -0.0, 2.24, 3.13, 2.98, 4.84, 5.6, 6.51, 6.58, 6.64, 7.01, 6.26, 5.64, 4.22, 6.64, 8.85, 5.36, -3.16, -2.51, -0.0, 1.4, 1.4, 2.8, 4.29, 6.06, 7.33, 8.58, 7.41, 7.44, 7.63, 7.15, 6.16, 5.21, 5.2, 5.2, 5.75, 6.8, 7.2, 7.42, 9.03, 10.53, 10.94, 7.95, 6.73, 5.06, 2.76, 2.68, 4.8, 5.86, 5.43, 5.34, 6.16, 7.21, 7.63, 7.42, 6.65, 4.11, 4.11, 3.88, 3.88, 4.27, 4.27, 4.0, 4.37, 4.07, 4.65, 4.71, 5.01, 5.37, 6.23, 7.15, 8.15, 9.01, 9.21, 9.43, 9.57, 10.14, 10.67, 11.12, 11.61, 11.62, 12.07, 12.06, 12.47, 12.02, 11.16, 9.83, 7.58, 7.15, 4.02, 1.9, -0.0, 1.6, 2.21, 1.6, -0.0, -0.0, -0.0, -0.0, -0.0, -0.0, -0.0, 2.21, 3.58, 4.47, 5.36, 6.26, 6.26, 4.0, -0.0, -0.0, 2.0, 4.92, 7.6, 7.15, -0.0, -2.47, -1.52, -0.0, -0.0, 1.41, 3.47, 4.74, 6.52, 6.63, 7.81, 8.06, 8.4, 4.0, -2.0, -2.97, -1.58, -0.0, 1.34, 2.4, 3.6, 4.6, 6.44, 7.85, 9.08, 8.91, 8.43, 5.49, 2.2, 1.6, 3.93, 5.58, 5.46, 5.46, 6.0, 7.21, 7.63, 7.12, 7.12, 4.11, 4.11, 3.88, 4.27, 4.27, 4.27, 4.0, 4.55, 4.29, 4.65, 4.71, 5.29, 5.59, 6.23, 6.79, 7.61, 8.68, 9.42, 9.7, 10.34, 10.47, 11.04, 11.57, 11.61, 12.07, 12.06, 12.95, 13.36, 13.36, 12.95, 11.62, 10.27, 7.97, 6.71, 4.02, 2.21, 2.84, 2.98, 1.4, -0.0, -0.0, -0.0, -0.0, -1.6, -1.6, -1.8, -0.0, -0.0, -0.0, 1.6, 2.53, 3.16, 1.41, -0.0, -0.0, 1.6, 4.47, 6.26, 5.6, -0.0, -2.0, -2.0, -1.8, -0.0, -0.0, 2.0, 3.35, 4.84, 5.37, 8.0, 8.14, 6.66, -0.0, -3.6, -2.98, -1.13, -0.0, 1.2, 1.34, 1.0, 1.98, 3.48, 5.21, 6.7, 6.28, 6.02, 7.12, 4.98, 2.95, 3.79, 5.58, 3.64, 4.74, 7.03, 8.14, 7.6, 7.2, 7.2, 4.11, 4.11, 3.88, 4.27, 4.4, 4.4, 4.55, 4.55, 4.55, 4.65, 4.65, 4.94, 5.59, 6.15, 6.7, 7.61, 8.15, 9.01, 9.7, 9.91, 10.5, 11.49, 11.57, 11.62, 12.06, 12.95, 13.4, 14.3, 14.3, 14.3, 13.41, 11.57, 9.11, 7.63, 3.95, 2.97, 2.53, 1.8, -0.0, -0.0, -0.0, -0.0, -0.0, -1.2, -1.6, -1.8, -1.8, -1.8, -1.8, -1.8, -0.0, -0.0, -0.0, -0.0, 2.21, 2.21, 2.53, 1.8, -0.0, -1.8, -2.53, -2.53, -1.6, -0.0, -0.0, 0.99, 3.16, 2.84, 5.64, 8.85, 9.32, 3.2, -3.13, -3.9, -1.2, 0.88, 3.72, 4.01, 4.0, 3.13, 2.21, 1.8, 2.53, 3.07, 3.58, 2.84, 6.02, 5.2, 5.21, 5.82, 4.74, 3.11, 3.0, 6.01, 8.42, 7.33, 7.32, 7.32, 4.11, 4.11, 4.52, 4.4, 4.4, 4.8, 4.8, 4.55, 4.93, 4.65, 4.84, 5.21, 5.49, 5.93, 6.15, 7.34, 7.76, 8.51, 9.21, 9.57, 11.04, 11.49, 11.49, 11.18, 11.61, 12.5, 13.41, 13.85, 14.29, 14.26, 13.75, 12.3, 9.7, 6.8, 4.11, 3.58, 2.68, 2.21, -0.0, -0.0, -0.0, -0.0, -0.0, -2.53, -2.53, -2.53, -2.53, -1.6, -1.8, -1.6, -0.0, -0.0, -0.0, -0.0, -0.0, -0.0, -0.0, -0.0, -0.0, -2.21, -2.21, -2.21, -2.21, -0.0, -0.0, -0.0, 1.4, 4.47, 6.08, 10.46, 10.41, 4.02, -0.0, 1.13, 2.68, 3.91, 5.24, 6.73, 6.79, 6.57, 6.2, 5.36, 3.16, 0.79, 0.0, 0.96, 3.47, 5.58, 6.18, 6.44, 5.15, 2.47, 3.09, 5.13, 7.27, 6.95, 6.64, 6.64, 4.11, 4.11, 4.6, 4.4, 4.4, 4.8, 4.8, 4.55, 5.08, 5.08, 5.21, 5.21, 5.75, 5.86, 6.15, 7.44, 7.23, 7.48, 8.0, 9.23, 11.04, 12.18, 10.66, 10.45, 10.16, 12.31, 10.04, 12.58, 12.87, 11.56, 12.04, 11.56, 9.51, 6.95, 4.55, 3.39, 2.68, 1.7, -0.0, -0.0, -0.99, -0.99, -1.6, -2.21, -2.21, -1.9, -2.21, -2.53, -1.6, -1.6, -0.0, -0.0, -0.0, -0.0, -0.0, -0.0, -0.0, -0.0, -0.0, -2.68, -2.68, -2.68, -2.21, -1.13, -1.08, -0.0, -0.0, 4.02, 7.12, 10.91, 12.07, 11.87, 12.7, 12.45, 10.85, 9.54, 8.8, 8.8, 9.06, 9.06, 8.8, 6.26, 1.4, -0.87, 0.0, 0.96, 2.8, 4.65, 6.73, 6.06, 5.37, 4.42, 3.45, 4.28, 5.64, 6.53, 6.42, 6.42, 4.11, 4.52, 4.6, 4.4, 4.8, 4.8, 4.8, 4.69, 5.08, 5.08, 5.47, 5.21, 5.75, 5.86, 6.41, 6.7, 6.7, 6.41, 7.42, 8.55, 11.37, 11.12, 10.02, 9.67, 9.67, 10.28, 10.63, 9.2, 10.21, 10.49, 10.91, 10.18, 8.22, 5.75, 4.0, 3.35, 2.97, 3.13, 2.17, 0.63, -0.0, -0.95, -0.63, -0.63, -0.32, -2.68, -2.21, -2.53, -2.53, -1.6, -1.8, -1.8, -0.0, -0.0, -0.0, -0.0, 1.79, 0.89, 1.34, 2.24, -2.24, -1.9, -1.6, -2.73, -2.0, -0.88, -0.0, 2.98, 6.65, 9.54, 12.04, 14.83, 17.13, 17.44, 16.01, 14.73, 12.58, 10.85, 10.25, 10.28, 9.83, 7.55, 1.34, -3.6, -2.53, 0.0, 0.0, 1.98, 5.37, 5.37, 6.01, 5.89, 4.83, 3.21, 3.88, 5.9, 5.9, 5.9, 4.11, 4.6, 4.6, 4.4, 4.8, 4.8, 4.9, 5.31, 5.08, 5.08, 5.47, 5.6, 5.75, 5.75, 6.41, 6.7, 6.7, 6.51, 6.23, 8.38, 10.66, 8.72, 8.55, 8.65, 9.3, 9.76, 9.71, 9.51, 9.27, 9.43, 9.86, 9.54, 6.79, 4.0, 2.84, 2.79, 3.07, 3.39, 3.53, 2.68, 1.34, 0.0, -0.89, -0.89, -0.45, -1.9, -2.21, -3.2, -2.53, -1.6, -1.8, -1.8, -1.8, -0.0, -0.0, -0.0, 1.34, 0.0, 2.24, 1.79, 1.79, -2.68, -2.84, -3.16, -2.23, -0.87, -0.0, 2.23, 5.15, 7.81, 9.67, 12.79, 15.61, 16.91, 15.91, 14.68, 11.17, 10.58, 9.66, 9.9, 10.14, 8.05, 2.24, -4.02, -4.02, -2.68, -1.58, 0.0, 3.16, 4.74, 6.32, 6.83, 5.21, 2.9, 2.83, 4.5, 4.5, 4.5, 4.11, 4.6, 4.6, 4.6, 4.8, 4.9, 4.9, 5.31, 5.31, 5.08, 5.6, 5.6, 5.75, 5.75, 6.28, 6.95, 7.07, 7.35, 7.8, 9.01, 9.63, 8.91, 7.48, 7.9, 8.72, 10.0, 10.91, 10.81, 10.6, 10.66, 10.22, 9.77, 7.51, 4.6, 2.21, 2.21, 2.79, 3.35, 4.11, 4.11, 3.32, 1.6, 0.45, -0.45, 0.45, -0.0, -1.9, -3.2, -3.2, -1.8, -1.8, -1.8, -1.8, -0.0, -0.0, 1.4, 1.79, 0.0, 0.0, 0.0, 0.0, 1.79, -2.53, -2.23, -1.13, -0.0, -0.0, 1.13, 2.95, 3.91, 5.21, 9.76, 13.35, 11.06, 6.01, 7.85, 9.37, 8.85, 8.66, 8.53, 9.05, 8.14, 4.82, 0.0, -3.39, -2.4, -1.0, 0.0, 3.48, 5.37, 6.95, 7.27, 5.94, 3.09, 2.18, 2.99, 4.34, 4.34, 4.11, 4.11, 4.6, 5.02, 4.8, 4.9, 4.9, 5.31, 5.31, 5.08, 5.6, 5.6, 6.0, 5.89, 6.28, 6.56, 7.07, 7.61, 8.0, 9.1, 10.11, 10.12, 9.39, 8.72, 8.51, 9.51, 10.66, 11.71, 11.86, 11.95, 12.02, 11.57, 9.77, 6.94, 3.88, 2.79, 2.79, 3.35, 4.4, 4.8, 4.4, 3.6, 1.86, 0.63, 0.45, -0.0, -1.9, -3.2, -2.84, -2.84, -1.8, -1.8, -1.8, -0.0, -0.0, -0.0, 0.99, 1.79, 0.0, 0.0, 0.0, 1.34, -0.99, -1.13, -0.98, -0.0, -0.0, 0.99, 1.98, 0.98, -0.0, 5.72, 5.09, -4.47, -3.48, 1.52, 4.87, 6.36, 7.03, 7.44, 7.52, 7.81, 6.45, 3.39, 0.0, -1.2, 0.0, 1.2, 2.21, 2.53, 5.94, 5.94, 5.37, 3.22, 2.47, 3.09, 3.6, 3.6, 4.11, 4.11, 4.6, 4.6, 4.9, 4.9, 5.31, 5.31, 5.31, 5.81, 5.6, 6.0, 6.0, 6.28, 6.28, 6.8, 6.95, 7.61, 8.27, 8.82, 9.71, 10.42, 10.6, 10.34, 9.7, 9.7, 10.18, 11.24, 11.74, 12.3, 12.84, 12.84, 11.49, 9.11, 6.72, 4.8, 4.11, 3.88, 4.4, 4.9, 5.31, 4.9, 4.11, 2.91, 1.79, 0.63, -1.9, -3.6, -3.48, -2.98, -2.98, -1.41, -1.41, -1.27, -0.0, -0.0, -0.0, 0.99, 2.68, 0.0, 0.0, -1.79, -1.4, -0.98, -0.96, -0.0, 0.88, 1.8, 2.97, 2.8, 2.24, 10.91, 9.39, 2.24, -4.24, -2.73, 0.0, 2.28, 4.48, 5.68, 6.62, 6.95, 6.44, 4.57, 0.0, -1.58, -2.24, 1.79, -0.0, -2.68, 1.83, 1.55, 2.53, 3.16, 3.35, 3.0, 3.69, 3.69, 4.52, 4.52, 4.6, 4.6, 5.02, 5.09, 5.31, 5.31, 5.31, 5.81, 5.6, 6.0, 6.1, 6.28, 6.28, 6.8, 6.95, 7.48, 8.15, 8.43, 9.6, 10.11, 10.83, 10.91, 10.66, 10.6, 10.6, 10.81, 11.28, 11.74, 12.3, 12.75, 12.39, 10.5, 8.06, 6.51, 5.81, 5.31, 5.31, 5.4, 5.4, 5.81, 5.31, 4.8, 3.7, 2.17, 0.45, -1.34, -2.4, -3.09, -3.15, -2.8, -2.98, -1.55, -1.41, -0.0, -0.0, -0.0, -0.0, 3.13, 0.0, -2.24, -2.53, -1.83, -0.88, -0.0, 0.96, 2.0, 2.53, 3.39, 5.2, 9.06, 13.41, 12.52, 9.39, 4.47, 0.0, 0.0, 1.14, 4.07, 5.09, 6.51, 6.35, 5.43, 2.68, -2.24, -3.39, -2.23, -1.98, -2.54, -2.97, -1.74, 0.0, 2.23, 3.16, 3.22, 3.11, 3.11, 4.52, 4.52, 4.6, 4.6, 5.02, 5.09, 4.9, 5.31, 5.4, 5.81, 5.6, 6.0, 6.1, 6.51, 6.28, 6.8, 7.2, 7.48, 8.0, 8.68, 9.2, 9.71, 10.21, 10.91, 10.91, 11.08, 10.66, 10.81, 11.24, 11.28, 11.84, 12.3, 12.31, 11.4, 9.39, 7.51, 6.6, 6.79, 6.3, 6.3, 6.3, 6.3, 5.88, 5.81, 4.9, 4.11, 2.91, 0.95, -0.45, -2.15, -3.48, -3.22, -3.68, -2.32, -1.3, -1.3, -1.3, -0.0, -0.0, 2.0, 3.6, 2.24, -0.99, -1.83, -0.0, -0.0, 0.96, 2.0, 2.8, 3.58, 5.09, 9.03, 11.15, 14.28, 14.57, 13.49, 9.39, 4.01, 0.83, 1.58, 3.88, 5.28, 5.94, 6.07, 4.38, -0.0, -2.53, -2.53, -1.2, -1.34, -1.79, -1.49, 0.0, 1.66, 2.53, 3.35, 2.4, 2.4, 4.52, 4.52, 4.6, 4.6, 4.6, 5.09, 5.09, 5.31, 5.81, 5.81, 5.6, 6.0, 6.1, 6.51, 6.4, 6.8, 7.2, 7.31, 7.48, 8.4, 8.68, 9.6, 10.21, 10.62, 10.83, 10.91, 10.91, 11.08, 11.24, 11.28, 11.4, 11.84, 11.86, 11.86, 10.94, 8.79, 7.81, 7.81, 7.81, 8.0, 7.58, 7.69, 7.26, 6.3, 6.04, 5.57, 5.09, 4.11, 2.4, 0.45, -1.24, -2.86, -3.84, -3.47, -3.33, -1.99, -1.3, -0.0, -0.0, 1.8, 3.16, 1.4, -0.0, -0.0, -0.0, 0.88, 1.8, 2.21, 2.97, 4.02, 5.51, 7.21, 9.7, 11.62, 12.86, 13.92, 14.22, 8.14, 1.55, 0.0, 1.67, 4.0, 5.21, 5.43, 4.66, 1.9, -0.0, -1.2, -0.0, -0.0, -0.0, -0.0, 0.0, 0.88, 2.4, 2.4, 2.4, 2.4, 4.52, 4.52, 4.6, 4.6, 4.6, 5.09, 5.09, 5.31, 5.4, 5.81, 5.6, 6.1, 6.1, 6.51, 6.6, 6.8, 7.31, 7.31, 7.71, 8.0, 8.51, 9.2, 9.71, 10.21, 10.42, 10.42, 10.42, 10.42, 10.6, 11.24, 11.28, 11.84, 11.86, 12.3, 11.4, 9.86, 8.3, 8.0, 8.0, 8.3, 8.22, 8.0, 7.74, 7.4, 7.51, 7.51, 7.87, 6.3, 5.31, 3.7, 1.79, -0.71, -2.86, -4.12, -3.47, -2.8, -1.3, -0.0, -0.0, -0.0, -0.0, -0.0, -0.0, -0.0, -0.0, 1.3, 2.98, 3.13, 3.13, 4.02, 5.81, 7.42, 9.06, 9.06, 10.14, 12.42, 13.83, 7.63, -0.82, -0.89, 0.83, 2.44, 3.84, 4.74, 2.54, -0.0, -0.0, -0.0, -0.0, -0.0, -0.0, -0.0, 0.0, 0.0, 0.72, 2.2, 2.47, 2.47, 4.6, 4.6, 4.6, 4.6, 4.6, 5.09, 5.09, 5.31, 5.4, 5.81, 5.6, 6.1, 6.1, 6.51, 6.6, 6.8, 7.31, 7.31, 7.71, 7.81, 8.0, 8.51, 9.42, 9.92, 10.42, 9.92, 9.92, 9.92, 10.18, 10.6, 10.81, 11.28, 11.86, 12.3, 11.86, 10.81, 9.21, 8.0, 8.0, 8.51, 8.72, 8.22, 7.58, 8.3, 8.33, 7.07, 7.87, 8.48, 8.22, 6.1, 4.6, 2.24, -0.0, -2.86, -4.12, -3.49, -3.45, -2.32, -0.88, -1.99, -2.68, -2.84, -0.98, -0.0, 0.96, 2.6, 3.48, 3.58, 2.98, 3.9, 5.81, 8.45, 9.7, 9.9, 10.28, 11.88, 12.7, 6.8, -2.0, -2.95, 0.0, 1.67, 3.0, 2.86, 1.34, -0.87, -0.87, -0.99, -1.4, -0.98, -0.96, -0.0, -0.0, -0.88, 0.0, 1.45, 2.12, 2.12, 4.6, 4.6, 4.6, 4.6, 4.6, 5.09, 5.09, 5.31, 5.4, 5.81, 5.81, 6.1, 6.1, 6.51, 6.6, 6.8, 7.2, 7.31, 7.71, 7.81, 8.22, 8.51, 8.72, 9.21, 9.7, 9.92, 9.51, 9.51, 9.7, 10.12, 10.6, 11.24, 11.71, 12.18, 12.3, 11.28, 9.7, 8.1, 8.0, 8.1, 8.51, 8.51, 8.22, 7.31, 6.72, 8.33, 9.49, 7.71, 6.95, 6.03, 5.75, 5.08, 1.79, -0.71, -3.15, -4.43, -4.12, -3.49, -3.72, -3.47, -4.54, -3.58, -1.98, -0.0, 0.88, 1.72, 2.6, 4.66, 4.0, 3.79, 5.6, 8.01, 10.73, 11.96, 12.15, 12.89, 13.25, 9.9, 3.16, -1.98, -0.98, 1.23, 2.4, 1.76, 0.0, -1.98, -3.16, -3.6, -3.6, -2.53, -0.79, -0.0, -0.0, 0.0, 0.0, 0.79, 2.18, 2.18, 4.6, 4.6, 4.6, 4.6, 4.6, 5.09, 4.9, 5.31, 5.4, 5.81, 5.81, 6.23, 6.1, 6.51, 6.51, 7.01, 6.8, 7.31, 7.71, 7.81, 8.22, 8.3, 8.72, 9.21, 9.21, 9.7, 9.63, 9.21, 9.39, 9.7, 10.6, 11.08, 11.56, 12.04, 12.18, 11.74, 10.34, 8.72, 8.0, 8.0, 8.51, 8.51, 8.0, 7.48, 6.95, 8.43, 9.36, 6.28, 4.55, 3.48, 3.73, 4.55, 4.17, 1.79, -0.71, -2.86, -4.37, -4.71, -4.37, -5.15, -4.98, -4.0, -2.21, -0.0, 0.88, 0.88, 0.96, 3.48, 6.26, 5.72, 4.6, 5.36, 8.45, 12.49, 14.73, 14.58, 13.43, 11.75, 9.36, 4.54, 0.0, 0.0, 1.27, 1.27, 0.0, -2.4, -3.07, -3.74, -3.74, -3.22, -1.8, -0.79, -0.0, -0.0, 0.0, 0.74, 1.49, 1.49, 4.6, 4.6, 4.6, 4.6, 4.6, 5.09, 4.9, 5.31, 5.4, 5.81, 5.81, 6.23, 6.1, 6.51, 6.51, 7.01, 6.8, 7.31, 7.31, 7.71, 7.81, 8.22, 8.72, 8.72, 9.21, 9.21, 9.21, 8.3, 9.75, 9.21, 10.0, 10.42, 10.91, 11.56, 11.56, 11.74, 10.81, 9.21, 8.22, 7.81, 8.22, 8.51, 8.0, 8.0, 8.15, 8.68, 9.01, 7.74, 5.09, 3.2, 3.07, 3.35, 3.88, 3.35, 2.91, -0.57, -2.84, -4.07, -4.65, -4.37, -4.6, -3.35, -0.0, -0.0, -0.0, -0.0, -0.0, 1.8, 5.81, 6.26, 3.58, 2.8, 5.36, 11.18, 15.65, 15.91, 11.83, 9.04, 9.65, 8.8, 3.84, 0.0, 0.0, 0.61, 0.0, -1.34, -1.6, -1.6, -2.68, -2.6, -2.41, -1.66, -0.79, -0.0, 0.0, 0.0, 0.74, 0.74, 4.6, 4.6, 4.6, 4.6, 4.6, 5.02, 4.9, 5.31, 5.4, 5.81, 5.81, 6.23, 6.1, 6.1, 6.51, 7.01, 7.01, 7.01, 7.31, 7.71, 7.81, 8.22, 8.3, 8.72, 9.21, 9.21, 9.21, 8.72, 8.51, 10.43, 9.01, 9.51, 9.92, 10.6, 11.08, 11.71, 11.24, 9.7, 8.3, 7.81, 7.81, 8.22, 8.22, 8.0, 8.51, 9.01, 9.7, 9.57, 8.3, 6.16, 4.77, 3.7, 3.6, 3.6, 3.39, 2.63, 1.79, -1.61, -3.14, -2.84, -2.53, -1.13, -0.0, -0.0, -0.0, -0.88, -0.0, -0.0, 2.53, 4.66, 3.16, 2.21, 4.02, 8.56, 15.57, 17.86, 10.93, 4.43, 4.43, 7.2, 6.79, 3.6, 0.0, 0.85, 0.71, 0.6, 0.89, 1.34, 2.24, 1.79, -2.98, -2.41, -1.6, -0.76, -0.0, 0.0, 0.0, 0.0, 4.6, 4.6, 4.6, 4.6, 4.6, 4.8, 4.9, 5.31, 5.31, 5.81, 5.81, 5.81, 6.1, 6.1, 6.51, 6.6, 7.01, 7.01, 7.51, 7.31, 7.81, 8.22, 8.3, 8.72, 8.79, 9.21, 9.21, 9.21, 9.42, 9.42, 9.01, 9.21, 9.21, 9.7, 10.18, 10.81, 11.24, 10.34, 8.72, 7.81, 7.81, 7.81, 7.81, 8.22, 8.3, 8.72, 9.7, 9.86, 9.57, 8.64, 7.4, 6.04, 4.6, 3.7, 3.39, 3.07, 2.68, 2.24, -0.0, -0.65, -1.55, -1.41, -0.0, -1.55, -0.96, -0.88, -0.88, -0.96, -0.0, 2.0, 2.68, 4.66, 6.58, 9.36, 14.21, 17.42, 13.84, 6.71, 3.47, 4.4, 6.13, 6.28, 4.22, 2.53, 1.9, 1.86, 2.6, 3.07, 3.95, 3.13, -0.0, -2.98, -2.53, -0.85, -0.0, 0.0, 0.0, 0.0, 4.6, 4.6, 4.6, 4.6, 4.4, 4.8, 4.9, 5.31, 5.31, 5.4, 5.81, 5.81, 6.1, 6.1, 6.51, 6.6, 7.01, 7.01, 7.51, 7.51, 7.71, 7.81, 8.22, 8.3, 8.72, 9.21, 9.21, 9.21, 9.42, 9.42, 9.21, 9.21, 9.21, 9.21, 9.7, 10.34, 10.81, 10.34, 8.79, 7.81, 7.31, 7.51, 7.58, 8.0, 8.0, 8.48, 9.39, 9.86, 9.86, 9.39, 8.48, 7.51, 6.3, 5.09, 4.3, 3.39, 3.07, 2.68, 2.17, 1.58, -0.0, -0.0, -1.55, -1.55, -1.55, -1.55, -1.08, -1.08, -0.0, -0.0, 1.98, 5.09, 8.05, 10.45, 13.01, 15.18, 15.57, 13.92, 11.06, 8.9, 7.2, 6.7, 6.07, 4.46, 3.74, 3.32, 3.53, 4.82, 4.82, 4.47, 3.13, 1.34, -2.4, -1.9, -0.0, 0.95, 0.79, 0.79, 4.4, 4.4, 4.4, 4.4, 4.4, 4.8, 4.9, 4.9, 5.31, 5.4, 5.81, 5.81, 6.3, 6.1, 6.1, 6.51, 6.6, 7.01, 7.01, 7.51, 7.71, 7.81, 8.22, 8.3, 8.72, 8.79, 9.21, 9.21, 9.21, 9.21, 9.21, 9.21, 9.21, 9.21, 9.7, 9.86, 10.34, 10.34, 9.39, 7.81, 7.31, 7.09, 7.26, 7.4, 7.87, 8.33, 9.11, 9.57, 9.43, 9.21, 8.72, 7.81, 7.51, 6.3, 5.57, 4.77, 3.98, 3.13, 3.13, 2.4, 1.9, -0.0, -0.0, -0.88, -0.98, -0.0, -0.0, -0.0, -0.0, -0.0, 2.0, 3.16, 7.94, 10.73, 12.04, 12.86, 13.86, 14.66, 15.18, 13.39, 10.1, 6.7, 5.06, 5.09, 5.34, 5.34, 5.59, 5.29, 5.29, 5.36, 4.92, 2.68, 1.34, -2.0, -1.26, -0.0, 1.9, 1.9, 4.27, 4.27, 4.4, 4.4, 4.4, 4.8, 4.9, 4.9, 5.31, 5.4, 5.81, 5.81, 6.23, 6.1, 6.1, 6.51, 6.6, 7.01, 7.01, 7.51, 7.31, 7.81, 7.81, 8.22, 8.72, 8.72, 9.21, 9.21, 9.21, 9.21, 9.21, 9.21, 9.21, 9.27, 9.7, 9.7, 10.34, 10.34, 9.43, 8.3, 7.31, 6.6, 6.47, 7.85, 7.51, 8.33, 9.11, 9.57, 9.43, 9.21, 8.51, 7.48, 7.31, 6.6, 6.3, 5.57, 4.8, 4.44, 3.13, 3.07, 2.4, 1.9, -0.0, -1.08, -0.98, -0.0, -0.0, -0.0, -0.0, -0.0, 1.13, 2.23, 6.64, 11.57, 12.96, 12.27, 12.09, 13.21, 15.01, 14.47, 11.71, 6.7, 3.64, 3.72, 5.43, 6.0, 6.28, 6.02, 6.2, 5.81, 5.81, 4.92, 2.4, 0.89, -1.34, 0.89, 1.79, 1.79, 4.27, 4.27, 4.4, 4.4, 4.4, 4.8, 4.9, 4.9, 5.31, 5.31, 5.81, 5.81, 5.81, 6.3, 6.1, 6.51, 6.51, 7.01, 7.01, 7.51, 7.31, 7.71, 7.81, 8.22, 8.3, 8.72, 9.21, 9.21, 9.21, 9.21, 9.21, 9.21, 9.21, 9.21, 9.21, 9.7, 9.86, 10.34, 9.86, 8.72, 7.31, 6.51, 5.4, 6.7, 7.07, 9.32, 10.34, 10.18, 9.92, 9.01, 8.0, 7.31, 6.8, 6.51, 6.1, 6.3, 5.57, 5.24, 4.02, 3.58, 3.09, 2.91, 3.6, -0.0, -0.87, -0.0, -0.0, -0.0, -0.0, 1.13, 1.13, 1.8, 6.07, 10.7, 14.75, 13.39, 11.61, 12.45, 13.42, 14.13, 12.66, 8.91, 4.81, 2.53, 3.16, 4.8, 5.75, 6.51, 6.51, 6.65, 6.21, 6.2, 4.82, 1.58, 1.34, 0.89, 1.79, 1.79, 4.27, 4.27, 4.4, 4.4, 4.4, 4.8, 4.8, 4.9, 5.31, 5.31, 5.4, 5.81, 5.81, 6.3, 6.1, 6.51, 6.51, 6.6, 7.01, 6.8, 7.31, 7.71, 7.81, 8.22, 8.22, 8.72, 8.72, 9.21, 9.21, 9.21, 9.21, 9.21, 9.21, 9.21, 9.21, 9.21, 9.7, 9.86, 9.86, 9.21, 7.71, 6.28, 5.08, 4.93, 7.76, 9.43, 11.33, 10.91, 10.02, 8.43, 7.48, 6.8, 6.28, 6.51, 6.1, 6.3, 5.81, 5.24, 4.88, 4.47, 3.58, 3.53, 2.4, 1.6, -0.0, -1.41, -0.98, -0.0, 0.87, 1.98, 1.98, 2.21, 5.36, 9.39, 13.19, 13.21, 12.52, 12.09, 12.15, 11.99, 12.44, 10.8, 7.47, 3.16, 1.49, 2.6, 4.15, 6.02, 6.94, 7.42, 6.98, 7.1, 6.2, 3.6, 1.2, 1.58, 1.58, 1.79, 4.27, 4.27, 4.4, 4.4, 4.4, 4.8, 4.8, 4.9, 5.31, 5.31, 5.31, 5.81, 5.81, 6.23, 6.1, 6.1, 6.51, 6.6, 7.01, 6.8, 7.31, 7.31, 7.81, 7.81, 8.22, 8.3, 8.72, 9.21, 9.21, 9.21, 9.21, 9.21, 9.21, 9.21, 9.21, 9.21, 9.21, 9.7, 9.86, 9.21, 8.22, 6.28, 5.58, 5.29, 5.98, 10.28, 10.55, 10.3, 8.65, 7.35, 6.41, 6.28, 6.51, 6.51, 6.1, 6.3, 5.81, 5.09, 4.8, 4.44, 4.02, 3.58, 4.24, 2.53, -0.0, -0.0, -0.0, -0.0, 1.13, 2.84, 2.98, 2.8, 4.47, 6.71, 9.32, 12.94, 14.55, 13.86, 11.18, 8.63, 8.24, 8.67, 7.71, 3.83, 1.9, 2.54, 4.38, 5.59, 6.94, 7.21, 7.63, 7.85, 7.42, 6.02, 4.0, 2.53, 2.53, 2.53, 3.88, 3.88, 4.27, 4.4, 4.4, 4.8, 4.8, 4.9, 4.9, 5.31, 5.31, 5.4, 5.81, 5.81, 6.1, 6.1, 6.51, 6.6, 7.01, 6.8, 7.31, 7.31, 7.71, 7.81, 8.22, 8.3, 8.72, 8.72, 9.21, 9.21, 9.21, 9.21, 9.21, 9.21, 9.21, 9.21, 9.21, 9.21, 9.7, 9.27, 8.3, 6.8, 5.86, 5.93, 6.87, 9.21, 10.16, 9.35, 7.61, 6.03, 5.49, 5.75, 6.28, 6.28, 6.1, 6.1, 5.57, 5.09, 5.24, 4.88, 4.43, 4.02, 3.53, 3.6, 1.6, -0.0, -0.0, -0.0, 1.98, 2.84, 2.98, 2.97, 4.47, 4.85, 7.94, 10.73, 13.83, 15.57, 12.04, 7.42, 4.46, 5.34, 5.59, 4.87, 4.41, 4.85, 5.75, 6.51, 7.42, 7.71, 8.14, 8.63, 8.14, 7.63, 4.6, 3.16, 3.16, 3.16, 3.88, 3.88, 4.27, 4.4, 4.4, 4.4, 4.8, 4.8, 4.9, 5.31, 5.31, 5.31, 5.81, 5.81, 6.1, 6.1, 6.51, 6.51, 7.01, 6.8, 7.2, 7.31, 7.71, 7.81, 8.22, 8.22, 8.3, 8.72, 8.72, 9.21, 9.21, 9.21, 9.21, 9.21, 9.21, 9.21, 9.21, 9.21, 9.21, 9.21, 8.72, 7.31, 6.41, 6.15, 7.35, 8.96, 10.11, 9.63, 7.51, 6.0, 5.47, 5.75, 5.75, 6.28, 6.51, 6.1, 5.4, 5.51, 5.09, 4.77, 4.44, 4.02, 3.58, 4.47, 1.6, -0.0, -0.0, 1.41, 2.23, 2.84, 2.21, 2.4, 3.58, 5.29, 6.94, 8.8, 11.62, 14.22, 14.87, 12.09, 9.24, 7.45, 8.01, 8.05, 7.6, 7.12, 7.42, 7.85, 7.71, 8.14, 8.63, 9.06, 8.82, 8.14, 6.7, 5.6, 5.6, 5.6, 3.88, 3.88, 3.88, 4.27, 4.4, 4.4, 4.8, 4.8, 4.9, 4.9, 5.31, 5.31, 5.81, 5.6, 6.0, 6.1, 6.51, 6.51, 6.6, 6.8, 6.8, 7.31, 7.31, 7.71, 7.81, 8.22, 8.22, 8.72, 8.72, 8.72, 9.21, 9.21, 9.21, 9.21, 9.21, 9.21, 8.72, 8.72, 9.21, 9.21, 8.79, 7.81, 6.95, 6.51, 6.79, 8.27, 9.2, 9.63, 8.42, 6.6, 6.0, 5.6, 5.6, 5.6, 6.3, 5.81, 5.81, 5.51, 5.09, 4.77, 4.44, 3.98, 4.02, 3.53, 3.16, 1.27, -0.0, 0.98, 1.8, 1.98, 2.53, 1.9, 2.68, 4.47, 5.81, 6.71, 8.94, 11.6, 13.65, 13.91, 13.35, 12.79, 12.72, 11.42, 10.28, 8.91, 7.76, 8.14, 7.89, 7.89, 8.79, 8.82, 8.82, 8.56, 8.56, 7.35, 7.35, 7.35, 3.88, 3.88, 3.88, 4.27, 4.4, 4.4, 4.4, 4.8, 4.8, 4.9, 5.31, 5.31, 5.81, 5.6, 6.0, 6.1, 6.51, 6.51, 6.6, 6.8, 6.8, 7.2, 7.31, 7.71, 7.81, 8.22, 8.22, 8.3, 8.72, 8.72, 8.91, 8.91, 8.91, 8.91, 8.91, 8.91, 8.72, 8.72, 8.72, 9.21, 8.79, 8.22, 6.95, 6.51, 6.79, 7.9, 8.68, 9.01, 8.72, 7.51, 6.51, 5.81, 5.57, 5.57, 5.99, 5.7, 5.7, 5.24, 5.33, 4.89, 4.47, 4.47, 4.02, 3.87, 3.14, 2.48, 1.27, 1.13, 1.13, -0.0, -0.0, -0.0, 2.4, 3.39, 4.34, 4.82, 6.65, 9.8, 11.51, 11.5, 11.88, 13.99, 14.84, 13.09, 11.53, 9.83, 8.91, 8.19, 7.76, 8.22, 8.22, 8.3, 8.72, 8.82, 8.82, 8.3, 8.3, 8.3, 3.88, 3.88, 3.88, 3.88, 4.27, 4.4, 4.4, 4.8, 4.8, 4.9, 5.31, 5.31, 5.81, 5.6, 6.0, 6.1, 6.51, 6.51, 6.51, 6.8, 6.8, 7.2, 7.31, 7.31, 7.71, 7.81, 8.22, 8.22, 8.72, 8.51, 8.51, 8.51, 8.91, 8.91, 8.51, 8.51, 8.51, 8.72, 8.72, 8.72, 8.79, 8.72, 7.48, 6.95, 6.7, 7.35, 8.43, 8.68, 8.4, 7.71, 6.6, 6.3, 5.99, 5.7, 5.78, 5.34, 5.33, 4.92, 4.92, 4.92, 4.47, 4.44, 4.3, 4.11, 2.84, 3.16, 1.6, -0.0, -0.0, 1.2, -0.0, 1.2, 1.9, 2.97, 3.47, 4.38, 6.2, 8.45, 9.54, 9.36, 10.55, 13.49, 15.13, 13.88, 13.09, 11.99, 10.73, 9.72, 9.06, 7.82, 7.82, 7.82, 8.4, 8.55, 8.95, 8.95, 8.95, 8.95, 3.88, 3.88, 3.88, 3.88, 3.88, 4.27, 4.4, 4.4, 4.8, 4.8, 5.31, 5.31, 5.31, 5.6, 5.6, 6.0, 6.1, 6.51, 6.51, 6.8, 6.8, 6.8, 7.2, 7.31, 7.71, 7.81, 8.22, 8.22, 8.3, 8.51, 8.51, 8.51, 8.51, 8.51, 8.51, 8.51, 8.51, 8.51, 8.72, 8.72, 8.72, 8.72, 8.22, 6.95, 6.7, 6.79, 7.9, 8.15, 8.0, 7.08, 6.28, 6.1, 5.81, 6.14, 5.78, 5.34, 5.36, 4.92, 4.92, 4.47, 4.44, 4.43, 3.87, 3.35, 2.84, 2.84, 1.4, 2.21, 2.21, 2.24, 1.58, 1.2, 1.9, 2.8, 3.39, 4.38, 5.73, 6.94, 7.76, 8.4, 10.18, 12.58, 14.21, 14.07, 13.88, 13.34, 11.62, 10.7, 8.91, 8.24, 8.06, 7.81, 7.81, 8.05, 8.05, 8.55, 8.55, 8.55, 3.72, 3.72, 3.72, 3.88, 3.88, 4.27, 4.4, 4.4, 4.8, 4.8, 4.9, 5.31, 5.08, 5.6, 5.6, 6.0, 6.1, 6.51, 6.51, 6.28, 6.8, 6.8, 7.2, 7.31, 7.71, 7.71, 7.81, 8.22, 8.22, 8.51, 8.51, 8.51, 8.51, 8.51, 8.51, 8.51, 8.51, 8.51, 8.3, 8.3, 8.72, 8.72, 8.22, 7.48, 6.7, 7.07, 7.61, 8.15, 8.0, 6.95, 6.67, 6.1, 6.3, 6.04, 6.23, 5.79, 5.81, 5.36, 4.92, 4.44, 4.44, 4.43, 3.82, 3.07, 2.53, 2.21, 1.2, 1.9, 2.68, 2.68, 2.24, 1.79, 1.2, 2.21, 2.98, 3.6, 4.98, 5.94, 6.7, 8.14, 9.7, 10.89, 11.87, 13.49, 14.31, 13.34, 7.6, 5.81, 6.66, 7.47, 7.07, 6.79, 6.18, 6.21, 6.4, 6.94, 6.94, 6.94, 3.35, 3.35, 3.35, 3.88, 3.88, 3.88, 4.4, 4.4, 4.8, 4.8, 4.9, 5.31, 5.08, 5.6, 5.6, 6.0, 6.1, 6.51, 6.51, 6.28, 6.8, 6.8, 6.8, 7.2, 7.31, 7.71, 7.81, 8.22, 8.0, 8.0, 8.51, 8.51, 8.51, 8.51, 8.51, 8.51, 8.51, 8.51, 8.22, 8.22, 8.3, 8.72, 8.72, 7.48, 6.95, 6.7, 7.07, 7.61, 7.61, 6.95, 6.41, 6.28, 6.0, 6.47, 6.61, 6.68, 6.23, 5.81, 5.36, 4.92, 4.47, 4.43, 3.97, 2.91, 2.4, 1.9, 1.0, 1.0, 2.0, 2.68, 2.4, 2.0, 1.79, 1.2, 2.21, 2.98, 4.0, 4.98, 6.02, 7.42, 8.9, 9.35, 9.97, 11.84, 14.11, 7.6, 0.85, -0.87, 1.0, 4.47, 4.84, 3.16, 2.0, 2.68, 3.58, 4.38, 4.38, 4.38, 3.35, 3.35, 3.35, 3.72, 3.88, 3.88, 4.27, 4.4, 4.8, 4.8, 4.9, 5.08, 5.08, 5.47, 5.6, 6.0, 6.0, 6.1, 6.51, 6.28, 6.28, 6.8, 6.8, 7.2, 7.31, 7.71, 7.71, 8.22, 8.0, 8.0, 8.0, 8.4, 8.51, 8.51, 8.51, 8.51, 8.51, 8.0, 8.22, 8.22, 8.22, 8.72, 8.72, 8.0, 6.95, 6.79, 6.7, 7.23, 7.23, 6.7, 6.41, 5.86, 5.75, 6.3, 6.94, 7.06, 6.61, 6.23, 5.78, 5.36, 4.92, 4.47, 4.02, 3.07, 2.6, 2.12, 1.26, 1.26, 1.58, 2.24, 2.68, 2.4, 1.58, 1.34, 1.2, 2.21, 3.39, 4.0, 5.29, 7.15, 8.05, 8.49, 8.94, 11.18, 12.96, 6.71, -0.99, -3.22, -0.76, 2.0, 2.97, 1.26, -0.0, -0.0, 1.58, 2.68, 2.68, 2.68, 3.35, 3.35, 3.6, 3.6, 3.88, 3.88, 4.27, 4.4, 4.8, 4.8, 4.9, 5.08, 5.08, 5.47, 5.6, 5.6, 6.0, 6.1, 6.51, 6.28, 6.28, 6.8, 6.8, 7.2, 7.2, 7.31, 7.71, 7.6, 8.0, 8.0, 8.0, 8.0, 8.0, 8.0, 8.0, 8.0, 8.0, 8.0, 8.22, 8.22, 8.22, 8.22, 8.72, 8.22, 7.48, 6.56, 6.51, 7.07, 7.07, 6.51, 5.86, 5.49, 5.75, 6.0, 6.3, 6.79, 6.94, 6.61, 6.16, 5.78, 4.89, 4.92, 4.02, 3.58, 3.13, 2.68, 2.24, 1.79, 1.58, 2.0, 2.24, 2.4, 1.9, 1.34, 1.26, 2.4, 2.97, 3.9, 5.36, 6.65, 7.55, 8.05, 8.94, 13.32, 13.25, 8.38, -0.0, -2.29, -0.79, 1.0, 2.54, 1.0, -0.0, -0.0, -0.0, -0.0, -0.0, -0.0, 3.35, 3.35, 3.6, 3.6, 3.88, 3.88, 4.27, 4.4, 4.8, 4.8, 4.8, 5.08, 5.08, 5.08, 5.47, 5.6, 6.0, 6.0, 6.1, 6.28, 6.28, 6.67, 6.8, 6.8, 7.2, 7.31, 7.71, 7.48, 7.6, 8.0, 8.0, 8.0, 8.0, 8.0, 8.0, 8.0, 8.0, 8.0, 8.22, 8.22, 8.22, 8.22, 8.3, 8.22, 7.71, 6.56, 6.41, 6.51, 6.51, 6.15, 5.86, 5.29, 5.21, 5.47, 5.6, 6.23, 6.3, 6.94, 6.47, 6.14, 5.24, 4.89, 4.44, 3.53, 3.13, 3.13, 2.24, 1.34, 2.24, 2.68, 2.68, 2.24, 1.79, 1.34, 1.34, 2.24, 2.68, 3.9, 6.02, 6.7, 6.94, 7.55, 11.15, 13.83, 13.69, 8.38, -0.0, -2.4, -1.55, -0.99, -0.0, -0.0, -0.0, -0.0, -0.0, -1.2, -1.2, -1.2, 3.14, 3.14, 3.6, 3.6, 3.72, 3.88, 4.27, 4.4, 4.8, 4.8, 4.8, 5.08, 5.08, 5.08, 5.47, 5.6, 6.0, 6.0, 6.1, 6.28, 6.28, 6.28, 6.8, 6.8, 7.2, 7.2, 7.31, 7.48, 7.48, 8.0, 8.0, 8.0, 8.0, 8.0, 8.0, 8.0, 8.0, 8.0, 8.22, 8.22, 7.81, 8.22, 8.22, 8.22, 7.81, 7.2, 6.41, 6.15, 6.15, 5.93, 5.29, 4.94, 4.84, 5.08, 5.08, 5.81, 5.81, 6.3, 6.3, 6.04, 5.57, 5.24, 4.77, 3.98, 3.53, 3.07, 2.68, 1.79, 2.24, 2.68, 2.68, 2.24, 1.79, 1.34, 1.34, 1.58, 2.8, 3.93, 5.82, 6.21, 6.21, 6.7, 10.25, 12.96, 12.86, 5.73, -2.68, -3.63, -3.22, -3.07, -1.74, -0.85, -0.99, -0.99, -1.4, -1.9, -1.9, -1.9, 2.79, 2.79, 3.6, 3.6, 3.72, 3.88, 4.27, 4.4, 4.8, 4.8, 4.55, 4.93, 5.08, 5.08, 5.47, 5.47, 5.6, 6.0, 6.0, 6.28, 6.28, 6.28, 6.67, 6.8, 6.8, 7.2, 7.31, 7.48, 7.48, 7.48, 8.0, 8.0, 8.0, 8.0, 8.0, 8.0, 8.0, 7.6, 7.81, 7.81, 7.81, 7.81, 8.22, 8.22, 8.22, 7.31, 6.41, 6.41, 6.15, 5.59, 5.29, 4.94, 4.65, 4.93, 4.93, 5.31, 5.81, 5.6, 6.0, 5.81, 5.99, 5.57, 5.24, 4.34, 3.82, 3.39, 3.07, 2.24, 1.79, 2.68, 2.68, 2.24, 1.79, 1.79, 1.79, 2.4, 2.53, 3.79, 5.49, 6.18, 5.82, 7.2, 8.56, 11.51, 11.51, 3.39, -4.22, -4.46, -4.01, -3.35, -2.84, -2.53, -2.53, -1.98, -2.21, -2.21, -2.21, -2.21, 2.79, 2.79, 3.07, 3.35, 3.35, 3.88, 4.27, 4.27, 4.4, 4.8, 4.55, 4.55, 5.08, 5.08, 5.08, 5.47, 5.6, 6.0, 6.0, 5.89, 6.28, 6.28, 6.28, 6.8, 6.8, 7.2, 7.2, 7.08, 7.48, 7.48, 7.48, 7.6, 7.6, 7.6, 7.6, 7.6, 7.6, 7.81, 7.81, 7.81, 7.71, 7.81, 7.81, 8.22, 8.22, 7.31, 6.67, 5.86, 5.86, 5.59, 5.29, 4.65, 4.65, 4.93, 4.55, 4.8, 5.31, 5.72, 5.6, 5.6, 5.81, 5.81, 5.51, 4.6, 4.11, 3.39, 3.32, 2.63, 2.24, 3.13, 2.68, 2.24, 2.24, 2.24, 1.58, 2.21, 2.23, 3.79, 5.15, 5.49, 5.77, 6.55, 7.82, 10.18, 10.45, 3.16, -3.95, -4.81, -4.43, -2.98, -3.16, -3.22, -3.22, -2.53, -2.53, -2.6, -2.6, -2.6, 2.79, 2.79, 2.79, 3.35, 3.35, 3.88, 3.88, 4.27, 4.4, 4.8, 4.55, 4.55, 4.93, 5.08, 5.08, 5.47, 5.6, 5.6, 5.75, 5.75, 6.28, 6.28, 6.28, 6.8, 6.8, 7.2, 7.2, 7.08, 7.48, 7.48, 7.48, 7.48, 7.48, 7.48, 7.48, 7.48, 7.48, 7.71, 7.71, 7.71, 7.71, 7.71, 7.81, 8.22, 8.22, 7.71, 6.8, 5.86, 5.86, 5.35, 5.29, 4.65, 4.65, 4.55, 4.55, 4.55, 5.31, 5.31, 5.08, 5.47, 5.47, 5.6, 5.81, 4.9, 4.27, 3.6, 3.39, 2.91, 2.6, 2.97, 2.68, 2.68, 2.24, 2.24, 2.21, 1.98, 2.23, 2.68, 4.43, 5.49, 5.49, 5.77, 7.44, 9.03, 10.01, 5.58, -2.97, -4.8, -4.46, -3.79, -3.48, -4.22, -3.6, -2.98, -3.39, -3.39, -3.39, -3.39, 2.79, 2.79, 2.79, 3.35, 3.35, 3.72, 3.88, 4.27, 4.27, 4.8, 4.55, 4.55, 4.93, 5.08, 5.08, 5.47, 5.47, 5.6, 5.75, 5.75, 6.28, 6.28, 6.28, 6.67, 6.8, 6.8, 7.2, 6.95, 7.08, 7.48, 7.48, 7.48, 7.48, 7.48, 7.48, 7.48, 7.48, 7.71, 7.71, 7.71, 7.71, 7.71, 7.71, 7.81, 7.81, 7.71, 6.8, 5.86, 5.86, 5.01, 5.29, 4.37, 4.65, 4.29, 4.55, 4.55, 4.55, 5.08, 5.08, 5.08, 4.84, 5.21, 5.47, 5.31, 4.8, 3.88, 3.6, 3.07, 2.91, 2.91, 2.68, 3.13, 2.68, 2.68, 2.8, 2.21, 1.98, 1.98, 2.95, 4.43, 5.15, 6.11, 7.06, 9.05, 10.55, 7.82, 0.0, -4.47, -4.8, -4.22, -4.22, -4.15, -3.95, -3.9, -3.39, -3.39, -3.39, -3.39, 2.79, 2.79, 2.79, 3.35, 3.35, 3.72, 3.88, 4.27, 4.27, 4.4, 4.55, 4.55, 4.55, 4.93, 5.08, 5.08, 5.47, 5.6, 5.75, 5.75, 5.75, 6.28, 6.28, 6.28, 6.8, 6.8, 7.2, 6.95, 6.95, 7.08, 7.48, 7.48, 7.48, 7.48, 7.48, 7.48, 7.48, 7.71, 7.71, 7.71, 7.71, 7.71, 7.71, 7.71, 7.81, 7.71, 6.8, 6.28, 5.49, 5.29, 5.01, 4.71, 4.65, 4.29, 4.37, 4.37, 4.55, 5.08, 5.08, 5.08, 4.65, 4.65, 5.21, 5.47, 5.08, 4.0, 3.72, 3.35, 3.07, 2.68, 3.07, 4.02, 3.13, 3.58, 3.13, 2.4, 1.4, 0.98, 2.2, 3.91, 5.06, 6.01, 7.41, 8.79, 10.23, 9.6, 4.58, -0.98, -4.02, -4.38, -4.38, -4.38, -4.38, -3.95, -3.47, -3.13, -3.13, -3.13, 2.53, 2.53, 2.79, 3.14, 3.35, 3.72, 3.88, 4.27, 4.27, 4.0, 4.55, 4.55, 4.55, 4.93, 5.08, 5.08, 5.47, 5.21, 5.37, 5.75, 5.75, 6.28, 6.28, 6.28, 6.67, 6.8, 6.8, 6.95, 6.95, 7.08, 7.08, 7.48, 7.48, 7.48, 7.48, 7.48, 7.48, 7.48, 7.48, 7.71, 7.71, 7.71, 7.71, 7.71, 7.71, 7.71, 7.2, 6.28, 5.49, 5.01, 5.05, 4.71, 4.65, 4.07, 4.37, 4.37, 4.55, 4.93, 5.08, 5.21, 4.65, 4.65, 4.65, 5.21, 4.84, 4.55, 4.0, 3.43, 3.14, 2.79, 2.68, 2.91, 2.68, 4.02, 3.13, 2.8, 2.21, 0.98, 1.83, 3.72, 4.83, 5.89, 6.95, 8.38, 9.65, 9.6, 7.44, 2.8, -0.98, -3.9, -4.47, -4.47, -4.47, -4.47, -4.02, -3.58, -3.58, -3.58, 2.53, 2.53, 2.79, 3.14, 3.35, 3.72, 3.88, 4.27, 4.27, 4.0, 4.55, 4.55, 4.55, 4.93, 5.08, 5.08, 5.47, 5.21, 5.37, 5.75, 5.75, 6.28, 6.28, 6.28, 6.67, 6.8, 6.8, 6.95, 6.95, 7.08, 7.08, 7.48, 7.48, 7.48, 7.48, 7.48, 7.48, 7.48, 7.48, 7.71, 7.71, 7.71, 7.71, 7.71, 7.71, 7.71, 7.2, 6.28, 5.49, 5.01, 5.05, 4.71, 4.65, 4.07, 4.37, 4.37, 4.55, 4.93, 5.08, 5.21, 4.65, 4.65, 4.65, 5.21, 4.84, 4.55, 4.0, 3.43, 3.14, 2.79, 2.68, 2.91, 2.68, 4.02, 3.13, 2.8, 1.13, 0.98, 1.83, 3.72, 4.83, 6.18, 6.53, 7.97, 9.04, 9.05, 8.05, 5.77, 1.84, -1.08, -3.35, -3.9, -4.02, -4.47, -4.02, -3.58, -3.58, -3.58]}, {"header": {"dx": 0.06612293990616946, "dy": 0.0552356325346848, "nx": 98, "ny": 59, "la1": 35.046912555036876, "la2": 31.78801023549047, "lo1": -121.43107172385933, "lo2": -114.95102361305473, "refTime": "2026040916", "parameterCategory": 1, "parameterNumber": 3}, "data": [-1.84, -1.84, -1.84, -1.84, -1.88, -1.88, -1.88, -1.9, -1.9, -1.86, -1.2, -0.63, 0.0, 0.0, 0.0, 0.0, 0.0, 0.0, 0.0, 0.0, 0.0, 0.0, -0.0, 1.2, 1.98, 2.53, 2.98, 2.21, 1.2, -0.0, -0.0, -1.2, -2.21, -2.8, -2.97, -3.13, -3.13, -2.24, -1.79, -1.26, -0.85, -1.08, -3.0, -4.96, -6.97, -7.25, -8.74, -10.21, -8.86, -4.2, 0.0, 0.88, 1.73, 2.4, 3.45, 4.2, 4.71, 4.92, 4.13, 3.85, 3.29, 2.41, 2.49, 2.39, 2.47, 2.59, 3.25, 3.16, 3.19, 4.06, 3.32, 3.19, 2.41, 2.49, 1.76, 1.6, 0.85, 0.0, 0.0, 0.0, -1.2, -1.9, -2.68, -2.68, -2.68, -2.0, -1.2, -1.13, -1.83, -2.64, -3.45, -4.83, -4.83, -4.2, -3.27, -1.72, 0.0, 0.0, -1.84, -1.84, -1.84, -1.84, -1.88, -1.88, -1.88, -2.5, -2.15, -2.23, -1.6, -1.26, -1.26, -1.0, 0.0, 0.0, 0.0, 0.0, 0.0, -1.2, 0.0, 0.0, 0.0, -0.0, 0.99, 1.98, 1.98, 2.21, 1.2, -0.0, -1.2, -1.58, -2.4, -2.68, -2.68, -2.97, -3.39, -3.39, -2.97, -2.21, -2.23, -4.02, -6.01, -8.6, -10.12, -10.98, -11.19, -9.49, -4.83, 0.0, 1.83, 1.72, 2.67, 3.69, 4.37, 4.83, 4.92, 4.8, 4.01, 4.01, 3.29, 3.29, 3.16, 2.49, 2.39, 3.11, 3.25, 3.29, 3.19, 3.23, 3.23, 3.11, 2.44, 2.41, 1.69, 1.62, 0.85, 0.0, 0.0, 0.0, -1.2, -1.9, -2.68, -2.68, -2.68, -2.0, -1.2, -1.13, -1.83, -2.64, -3.45, -4.83, -4.83, -4.2, -3.27, -1.72, 0.0, 0.0, -1.84, -1.84, -1.84, -1.84, -2.21, -2.21, -2.21, -2.5, -2.5, -2.4, -1.86, -1.6, -1.2, -1.2, -1.2, -0.99, -0.99, -1.13, -1.13, -1.8, -0.99, 0.0, -2.24, -0.0, -0.0, -0.0, 1.13, 0.99, 1.2, -0.0, -1.0, -2.0, -2.24, -3.13, -2.21, -3.16, -3.16, -3.93, -4.6, -4.19, -4.74, -6.95, -9.23, -10.84, -11.14, -9.6, -7.38, -3.32, 0.0, 0.82, 1.72, 2.51, 3.6, 4.12, 5.13, 4.83, 4.92, 4.13, 4.01, 3.29, 3.19, 3.19, 3.29, 3.39, 3.95, 3.95, 4.01, 4.17, 4.06, 3.96, 3.23, 2.45, 1.54, 0.8, 0.82, 0.0, 0.0, 0.0, -0.76, -0.98, -1.4, -2.4, -2.68, -3.13, -2.97, -2.68, -2.0, -1.98, -2.6, -4.12, -4.92, -5.76, -5.9, -4.96, -2.64, 0.0, 0.0, 0.0, -1.84, -1.84, -1.84, -2.23, -2.53, -2.21, -2.21, -2.5, -2.68, -2.91, -2.4, -1.86, -2.21, -2.21, -2.53, -1.98, -2.23, -1.8, -1.8, -0.87, -1.13, -1.6, -1.9, -1.58, -1.2, -0.0, -0.0, -0.0, 1.2, -0.0, -0.0, -2.4, -2.68, -3.2, -3.48, -3.22, -4.43, -5.37, -6.82, -7.44, -7.97, -9.17, -8.76, -7.73, -6.45, -4.13, -1.54, 0.0, 0.8, 0.8, 1.49, 2.69, 3.45, 4.34, 4.83, 5.06, 4.07, 4.13, 3.16, 3.29, 3.29, 3.42, 4.01, 4.01, 5.0, 5.0, 4.87, 4.32, 4.84, 5.02, 4.0, 3.14, 1.54, 0.0, 0.0, -0.82, 0.0, 0.0, 0.0, -1.8, -2.21, -2.4, -2.68, -3.39, -3.9, -3.58, -2.97, -3.48, -5.24, -5.76, -6.45, -6.31, -4.96, -2.64, 0.0, 0.0, 0.0, 0.0, -1.84, -1.84, -1.84, -2.23, -2.53, -2.21, -2.21, -3.07, -3.07, -2.91, -2.91, -2.0, -2.4, -2.53, -2.84, -3.16, -2.84, -2.68, -2.68, -2.84, -3.16, -3.6, -3.58, -3.13, -2.4, -2.53, -2.21, -0.0, -0.0, -0.0, 0.0, -2.24, -3.58, -4.15, -4.74, -5.06, -5.37, -6.32, -8.06, -9.04, -9.0, -7.18, -5.06, -3.21, -1.68, -0.85, 0.0, 0.0, 0.0, 0.78, 1.6, 2.57, 3.32, 4.0, 4.2, 4.07, 3.25, 3.25, 3.39, 3.16, 3.16, 4.01, 4.68, 5.0, 5.86, 5.51, 4.87, 5.51, 6.56, 6.31, 5.55, 3.91, 2.76, 0.8, 0.0, -1.47, -0.85, 0.0, 0.0, -1.6, -2.98, -3.39, -3.58, -4.47, -4.38, -4.47, -4.19, -5.24, -6.7, -7.36, -6.31, -4.96, -2.8, 0.0, 0.88, 0.0, 0.0, -0.83, -1.84, -1.84, -2.23, -2.23, -2.23, -2.53, -2.53, -2.79, -3.07, -3.07, -2.91, -2.4, -2.4, -2.21, -2.84, -3.16, -3.93, -3.79, -3.79, -4.54, -4.6, -4.34, -4.47, -4.02, -4.02, -4.02, -4.02, -3.58, -3.58, -2.68, 0.0, -1.26, -2.98, -4.11, -4.29, -4.29, -4.29, -4.42, -5.69, -8.4, -7.44, -6.32, -3.4, -2.57, -2.49, -2.51, -2.44, -1.58, -0.79, 0.0, 0.81, 1.6, 2.35, 2.57, 2.47, 2.59, 2.39, 2.59, 3.25, 3.16, 3.39, 4.13, 4.8, 5.63, 5.86, 5.51, 4.87, 5.41, 5.86, 5.8, 4.87, 4.61, 4.13, 2.39, 0.0, 0.0, -0.84, 0.0, 0.0, -2.23, -4.0, -4.57, -4.98, -5.81, -6.26, -6.94, -7.44, -7.59, -7.48, -6.53, -4.03, -1.84, 0.0, 0.99, 0.0, 0.0, -1.84, -1.73, -2.07, -2.07, -2.51, -2.51, -2.23, -2.53, -2.79, -2.79, -3.2, -3.6, -3.39, -3.07, -2.4, -2.21, -3.16, -3.16, -3.79, -4.89, -5.15, -4.74, -4.01, -2.76, -2.23, -3.82, -4.47, -4.47, -4.47, -4.47, -4.0, -3.2, -3.13, -1.79, -1.2, -2.76, -3.33, -3.0, -3.33, -2.66, -2.98, -5.09, -7.06, -6.9, -6.63, -5.21, -3.61, -3.36, -2.39, -1.62, -0.81, 0.0, 0.0, 0.8, 1.75, 1.6, 1.6, 1.68, 1.62, 1.68, 2.39, 2.49, 3.25, 4.07, 3.95, 4.13, 4.8, 4.68, 4.68, 3.95, 4.13, 4.06, 3.34, 3.25, 2.91, 2.41, 1.65, 0.85, 0.85, 0.84, 0.0, -1.68, -4.54, -5.21, -5.6, -6.94, -7.63, -8.67, -9.04, -7.48, -5.76, -3.47, 0.0, 0.85, 1.2, 1.0, 0.0, -1.72, -2.4, -2.51, -1.8, -2.23, -2.23, -2.51, -2.51, -2.51, -2.79, -2.79, -3.6, -3.7, -3.87, -3.53, -3.9, -3.72, -2.73, -3.16, -3.79, -4.29, -4.29, -3.72, -1.72, 0.0, 0.0, -0.88, -2.0, -1.8, -2.53, -3.58, -4.0, -4.0, -4.47, -4.47, -4.66, -4.74, -3.9, -3.2, -2.47, -1.84, 0.0, 0.0, -4.02, -5.6, -6.28, -5.31, -2.66, -1.32, 0.0, 0.0, 0.0, 0.0, 0.0, 0.0, 0.8, 0.85, 0.81, 0.85, 0.78, 0.82, 0.82, 1.62, 2.39, 2.47, 2.39, 2.49, 3.11, 3.39, 3.29, 2.49, 1.62, 1.63, 2.37, 1.61, 0.79, 0.81, 1.65, 1.42, 1.56, 1.62, 0.0, -0.83, -3.02, -4.81, -5.43, -6.07, -7.6, -8.3, -7.96, -6.53, -3.4, 0.0, 2.24, 2.24, 2.24, 0.0, -0.88, -2.51, -2.67, -2.64, -1.8, -2.23, -2.23, -2.23, -2.51, -2.84, -2.84, -3.14, -3.72, -4.11, -4.6, -4.8, -7.01, -6.88, -6.0, -5.6, -5.95, -5.06, -4.29, -3.91, -2.6, 0.0, 0.0, -0.95, -1.84, 0.0, 0.0, -3.13, -3.6, -4.47, -5.09, -5.64, -4.84, -3.22, -2.6, -2.8, -3.0, 0.0, 3.6, 4.0, 3.58, 0.0, -1.7, -1.41, 0.0, 0.98, 1.3, 1.23, 0.89, 0.83, 0.0, 0.0, 0.0, 0.0, 0.0, 0.0, 0.0, 0.0, 0.82, 0.82, 0.82, 0.78, 0.78, 1.68, 2.47, 2.49, 1.58, 1.63, 0.82, 0.79, 0.77, 0.72, 0.0, 0.0, 0.71, 0.8, 0.82, 0.0, 0.0, 0.0, -0.81, -4.29, -4.81, -5.09, -5.72, -6.01, -5.64, -4.96, -2.35, 0.0, 2.4, 2.0, 1.26, 0.0, -1.84, -2.4, -3.4, -2.6, -1.8, -2.23, -2.23, -2.23, -2.23, -2.84, -2.84, -2.84, -3.43, -4.4, -5.31, -5.6, -5.6, -6.3, -7.85, -8.06, -8.58, -8.72, -8.63, -8.22, -7.6, -6.9, -6.28, -5.37, -4.74, -2.73, 0.0, -3.13, -3.6, -3.16, -3.16, 0.0, 0.0, 2.0, 0.0, 0.0, 0.0, 2.98, 4.92, 4.92, 4.02, 2.97, 1.13, 0.87, 0.87, 1.13, 1.13, 0.88, 1.84, 1.84, 1.63, 0.89, 0.0, 0.0, 0.0, 0.0, 0.0, 0.0, 0.0, 0.0, 0.0, 0.0, 0.0, 0.8, 1.6, 1.62, 0.8, 0.73, 0.0, 0.0, 0.0, -0.72, -0.73, 0.0, 0.0, -0.71, -1.54, -2.44, -1.41, -0.69, -0.7, -2.22, -5.06, -4.43, -3.64, -3.55, -3.69, -3.09, -1.45, 0.0, 0.79, 0.99, 0.0, -1.08, -2.51, -3.45, -2.51, -2.2, -1.8, -2.23, -2.23, -2.48, -2.48, -2.86, -3.16, -3.43, -3.78, -4.55, -5.08, -5.75, -5.59, -5.59, -6.55, -7.03, -8.17, -6.6, -6.6, -7.51, -10.18, -9.66, -8.72, -7.53, -6.23, -3.16, -1.6, 0.0, 0.0, 0.0, 2.53, 4.02, 4.92, 4.47, 3.35, 1.55, 3.16, 5.36, 4.02, 3.58, 3.58, 2.97, 2.4, 0.0, 0.0, 0.0, 0.0, 0.98, 0.96, 1.84, 1.73, 1.75, 0.8, 0.0, 0.0, 0.0, -0.82, -1.68, -1.68, -1.68, 0.0, 0.0, 0.89, 1.73, 1.75, 1.68, 1.56, 0.79, 0.0, -1.63, -2.37, -2.81, -2.85, -2.2, -2.13, -2.91, -3.73, -4.75, -4.93, -4.0, -2.81, -1.4, -2.97, -4.81, -3.79, -2.88, -3.0, -2.26, -2.12, -1.52, -0.76, 0.0, 0.0, -1.7, -3.6, -3.32, -2.51, -0.98, -1.8, -2.23, -2.48, -2.48, -2.48, -2.86, -2.86, -3.16, -3.48, -4.07, -5.21, -5.29, -5.65, -5.1, -4.05, -3.42, -2.84, -3.22, -3.57, -4.47, -4.47, -3.84, -2.61, -3.76, -1.41, 0.0, 0.0, 0.51, 1.08, 1.8, 3.6, 4.02, 4.34, 3.9, 3.13, 2.68, 2.68, 3.58, 3.58, 3.9, 3.9, 3.58, 2.24, 0.0, 0.0, 0.0, 0.0, 0.0, 0.0, 0.0, 0.0, 0.84, 0.8, 0.85, 0.0, 0.0, 0.0, -0.81, -2.67, -0.96, 0.96, 2.76, 3.35, 2.99, 3.55, 3.32, 3.39, 2.41, 0.0, -2.49, -3.76, -4.24, -4.39, -4.81, -4.81, -4.71, -5.48, -5.72, -6.44, -6.36, -4.98, -2.45, -1.58, -5.15, -4.19, -3.72, -3.9, -3.0, -2.35, -2.26, -1.52, -0.76, 0.0, -1.7, -3.27, -4.2, -2.51, -1.08, -1.8, -1.8, -2.48, -2.22, -2.22, -2.6, -3.15, -3.48, -3.48, -3.79, -4.71, -5.01, -5.65, -5.71, -4.69, -3.32, -1.69, -1.61, -1.73, -1.69, -1.65, -1.15, 0.0, 0.0, 1.11, 1.11, 1.1, 1.16, 1.07, 0.0, 0.0, 1.98, 3.58, 3.39, 2.97, 2.8, 2.4, 2.68, 3.58, 4.02, 4.47, 4.02, 3.13, 1.79, 0.0, -2.53, -3.16, -2.98, -1.52, -1.32, -0.82, -0.83, 0.0, 0.0, 0.0, 1.2, 1.33, 1.2, -1.13, 1.9, 5.36, 5.73, 5.2, 4.98, 4.43, 4.83, 6.05, 5.86, 3.95, 1.67, 0.0, -1.67, -4.07, -5.63, -6.33, -5.72, -5.51, -5.63, -5.86, -5.77, -5.09, -4.17, -3.6, -5.06, -5.37, -5.37, -5.06, -3.72, -3.22, -2.35, -2.35, -1.47, -0.81, -1.6, -3.27, -3.32, -1.84, -0.96, -1.8, -1.76, -2.22, -2.22, -2.22, -2.86, -2.86, -2.86, -3.49, -4.11, -4.43, -5.01, -5.37, -5.41, -5.09, -4.42, -3.3, -2.3, -1.75, -1.65, -1.15, -1.12, -0.56, 0.0, 0.0, 0.58, 1.16, 1.16, 1.14, 0.56, 0.0, 0.0, 1.8, 2.24, 2.68, 2.68, 2.24, 2.68, 3.13, 4.02, 4.02, 3.58, 4.02, 3.13, 0.0, 0.0, -1.98, -3.22, -2.8, -1.63, -1.32, -2.66, -1.4, 0.0, 1.41, 2.53, 2.66, 1.26, 0.0, 3.16, 6.7, 7.6, 7.01, 7.01, 5.6, 5.15, 5.3, 5.86, 6.44, 5.76, 4.96, 2.54, 0.0, -2.64, -3.47, -2.6, -2.6, -2.47, -3.4, -3.6, -4.12, -4.92, -4.92, -5.1, -5.78, -5.89, -5.06, -4.6, -3.58, -2.4, -2.2, -3.11, -2.29, -2.64, -2.4, -2.54, -1.65, -0.83, -1.76, -1.76, -2.22, -2.22, -2.44, -2.44, -2.86, -3.12, -3.49, -3.49, -4.12, -4.45, -5.37, -5.1, -5.36, -4.66, -3.94, -3.45, -2.77, -2.25, -1.69, -1.12, -1.11, -0.58, 0.0, 0.0, 0.57, 1.13, 1.14, 0.56, 0.0, -0.54, 0.0, 0.0, 1.9, 3.13, 3.2, 2.21, 3.2, 3.13, 4.02, 4.02, 3.13, 3.13, 3.13, 3.13, 2.21, 0.0, 0.0, 0.0, 0.0, 0.0, 2.0, 4.47, 4.92, 4.0, 0.0, 0.0, 0.0, 5.36, 5.75, 6.07, 5.81, 5.81, 5.64, 5.21, 4.74, 3.91, 5.31, 5.21, 5.64, 4.2, 2.0, 1.0, 0.99, 1.58, 1.34, 0.0, -1.2, -1.8, -2.76, -4.03, -4.28, -3.78, -2.97, -5.06, -4.58, -4.4, -3.2, -2.95, -3.72, -3.9, -3.9, -3.0, -2.4, -2.54, -2.67, -2.67, -1.76, -1.76, -2.22, -2.44, -2.44, -2.44, -2.86, -2.84, -3.22, -3.49, -4.12, -4.12, -4.47, -5.1, -5.1, -4.69, -4.63, -4.12, -3.42, -2.87, -2.33, -1.74, -1.16, -0.58, 0.0, 0.57, 0.59, 1.16, 1.16, 0.56, 0.0, -0.57, -1.14, 0.0, 0.0, 2.21, 2.84, 1.98, 2.8, 4.02, 4.02, 3.58, 3.13, 3.2, 3.2, 3.6, 4.02, 3.58, 3.58, 3.2, 2.53, 3.16, 4.24, 4.47, 4.02, 3.2, 0.0, 0.0, 2.8, 5.36, 4.0, 4.0, 3.6, 4.02, 4.47, 4.0, 2.23, 3.22, 5.37, 4.0, 2.44, 0.74, 2.24, 1.8, 1.98, 3.39, 3.58, 2.4, 0.0, -2.0, -2.98, -3.48, -3.47, -2.51, -2.35, -1.72, -2.67, -2.99, -3.93, -3.79, -3.72, -5.09, -4.74, -3.91, -3.7, -3.8, -3.6, -3.6, -1.76, -1.76, -2.22, -2.44, -2.2, -2.2, -2.84, -2.84, -2.84, -3.49, -3.49, -3.84, -4.47, -4.47, -4.46, -4.69, -4.66, -3.94, -3.42, -2.75, -2.21, -1.72, -1.16, 0.0, 0.57, 0.59, 0.58, 0.0, 0.0, 0.0, 0.0, -1.16, -2.28, -2.54, -0.79, 0.99, 2.53, 3.6, 3.58, 4.02, 4.47, 3.58, 3.58, 2.4, 3.2, 3.6, 3.6, 3.6, 3.6, 3.6, 4.02, 4.02, 3.58, 3.13, 2.21, 2.21, 2.53, 3.6, 4.47, 3.6, 2.53, 2.53, 3.2, 3.58, 3.58, 2.97, 3.16, 2.84, 1.41, 1.26, -1.16, -1.6, -0.0, 0.98, 2.4, 4.38, 5.58, 4.81, 2.0, 0.0, -2.21, -3.6, -4.22, -3.84, -2.68, -2.84, -1.72, -2.6, -3.47, -4.16, -4.74, -5.43, -6.0, -6.01, -5.9, -5.86, -5.13, -5.13, -1.76, -1.76, -1.94, -2.2, -2.2, -2.4, -2.4, -2.84, -3.08, -3.49, -3.22, -3.47, -3.85, -4.75, -4.47, -4.28, -4.44, -3.97, -3.45, -2.25, -1.74, -1.72, -1.72, 0.0, 0.58, 0.57, 0.0, -0.58, -0.6, -1.19, -1.72, -2.34, -3.42, -3.4, -1.76, 0.0, 0.0, 2.21, 4.02, 4.47, 4.47, 4.47, 3.58, 2.53, 2.53, 2.53, 2.53, 3.2, 3.6, 3.2, 3.58, 3.13, 3.13, 2.68, 2.68, 2.68, 3.13, 3.58, 3.13, 2.21, 2.21, 2.21, 2.21, 3.58, 4.02, 3.58, 2.8, 0.0, -4.56, -3.92, -2.6, 0.0, 3.13, 3.39, 3.58, 4.89, 6.11, 5.89, 5.1, 2.82, 0.89, 0.0, -3.16, -3.95, -4.02, -4.82, -5.21, -3.72, -4.42, -4.83, -4.29, -5.75, -6.94, -7.32, -7.27, -6.95, -6.64, -6.64, -1.76, -1.76, -1.73, -2.2, -2.2, -2.4, -2.4, -2.84, -2.82, -2.82, -3.47, -3.47, -3.45, -4.1, -4.47, -4.96, -4.45, -4.03, -2.86, -1.73, -1.74, -2.9, -3.37, -2.41, -1.56, -2.24, -2.23, -3.14, -3.78, -3.47, -3.44, -3.47, -3.91, -4.05, -2.84, -1.13, 0.0, 0.57, 2.68, 3.58, 2.97, 2.97, 3.2, 2.21, 2.21, 1.9, 2.21, 2.53, 3.2, 3.2, 3.58, 3.58, 3.13, 3.13, 3.13, 2.68, 2.68, 2.68, 2.68, -0.0, -0.0, -0.0, 2.21, 3.39, 4.34, 4.47, 3.13, 0.0, -2.67, -2.42, 0.0, 3.96, 5.55, 4.98, 4.17, 2.39, 1.6, 1.6, 2.47, 2.47, 1.6, 0.0, -2.8, -3.47, -4.47, -4.82, -5.6, -5.43, -5.89, -5.3, -5.37, -6.18, -7.76, -7.85, -8.06, -7.35, -8.03, -8.03, -1.76, -1.94, -1.73, -2.2, -2.4, -2.4, -2.4, -2.61, -2.82, -2.82, -3.04, -3.47, -3.45, -4.1, -4.08, -4.46, -4.46, -4.08, -4.12, -3.88, -4.06, -4.68, -5.89, -6.45, -6.45, -6.33, -5.72, -4.6, -4.54, -3.86, -4.02, -3.39, -3.52, -3.45, -2.86, -2.23, -0.99, 0.0, 0.54, 0.63, 0.45, 0.95, 0.63, 0.63, 0.32, -0.0, 2.21, 2.53, 2.53, 3.2, 3.6, 3.6, 4.02, 3.58, 2.68, 1.79, 0.0, 0.0, 0.0, 0.0, -0.0, 1.9, 3.2, 4.09, 4.0, 4.38, 3.58, 1.98, 0.83, 2.39, 4.81, 6.24, 6.52, 3.96, 1.6, -0.82, -3.14, -4.17, -0.85, 0.0, 0.0, 0.84, 0.0, -1.8, -2.53, -2.68, -2.68, -2.98, -5.37, -5.37, -6.01, -6.73, -8.05, -8.82, -8.55, -8.42, -8.42, -8.42, -1.76, -1.73, -1.73, -2.2, -2.4, -2.4, -2.18, -2.36, -2.82, -2.82, -3.04, -2.8, -3.45, -3.45, -4.08, -4.46, -4.46, -4.73, -5.1, -6.7, -6.56, -5.45, -5.7, -6.34, -6.97, -6.31, -4.57, -3.91, -3.27, -2.77, -2.9, -2.39, -2.26, -2.86, -2.84, -2.23, -1.84, -1.13, -0.59, 0.0, 0.0, 0.0, -0.0, -0.0, -0.0, 1.9, 2.21, 1.6, 2.53, 3.2, 3.6, 3.6, 3.6, 4.02, 3.58, 2.24, 0.0, -1.34, 0.0, 0.0, 0.0, -0.0, 2.84, 3.16, 3.35, 3.47, 3.58, 3.35, 4.29, 5.21, 6.45, 6.4, 5.46, 1.61, -2.39, -5.41, -8.94, -8.95, -7.24, -4.13, -1.69, 0.0, 0.0, -0.0, -0.0, -0.0, -1.58, -2.24, -3.16, -4.74, -6.32, -7.68, -7.81, -7.98, -8.48, -8.24, -8.24, -8.24, -1.76, -1.73, -1.73, -1.73, -2.4, -2.18, -2.18, -2.36, -2.36, -2.82, -2.8, -2.8, -3.45, -3.45, -3.42, -4.05, -4.71, -5.09, -6.0, -6.61, -5.67, -4.16, -4.03, -5.08, -5.45, -5.0, -4.02, -2.84, -1.67, -1.18, -1.14, -1.15, -1.16, -1.73, -2.21, -2.21, -2.23, -2.23, -1.76, -1.76, -1.33, -0.8, 0.0, -0.0, 0.0, 0.45, 1.9, 1.6, 1.6, 3.6, 3.6, 3.6, 3.6, 4.02, 3.58, 2.8, 0.0, -1.79, -3.13, -3.13, -1.34, 0.0, 2.53, 3.35, 3.39, 3.58, 3.58, 3.39, 3.93, 6.52, 7.81, 8.54, 6.28, 1.58, -6.01, -8.57, -10.81, -11.8, -10.82, -8.53, -5.76, -2.44, -0.96, -2.24, -1.13, -1.2, -2.0, -3.13, -3.48, -5.37, -6.95, -7.27, -6.68, -6.94, -7.28, -7.47, -7.82, -7.82, -1.76, -1.76, -1.73, -1.88, -2.4, -2.18, -2.18, -2.36, -2.36, -2.82, -2.8, -2.8, -3.0, -3.21, -3.42, -3.83, -4.71, -4.69, -5.72, -5.69, -4.76, -3.57, -2.93, -3.49, -3.97, -3.91, -3.37, -2.93, -2.26, -1.71, -1.14, -1.16, -1.15, -1.73, -2.22, -2.23, -2.23, -2.23, -2.2, -2.4, -2.2, -1.8, -1.24, -0.63, 0.0, 0.45, 1.9, 1.6, 2.84, 2.84, 3.6, 3.6, 3.6, 4.02, 4.02, 4.02, 2.97, 0.0, -3.13, -3.13, -2.68, 0.0, 2.97, 3.39, 3.9, 4.47, 4.02, 2.97, 2.98, 3.9, 4.92, 4.29, 1.7, -0.0, -3.48, -6.07, -9.05, -11.3, -11.94, -11.16, -8.27, -5.21, -1.84, -1.13, -2.24, -2.4, -2.68, -2.4, -2.21, -2.53, -6.68, -6.68, -5.37, -4.84, -5.75, -6.94, -7.2, -7.2, -1.76, -1.76, -1.73, -1.73, -2.18, -2.18, -2.36, -2.36, -2.36, -2.32, -2.8, -3.0, -3.0, -3.42, -3.42, -3.4, -4.05, -4.69, -5.32, -5.29, -4.57, -4.05, -3.53, -2.87, -3.42, -3.42, -3.39, -2.96, -2.8, -2.34, -1.75, -1.75, -1.72, -2.28, -2.44, -2.4, -1.76, -2.22, -2.2, -2.18, -2.36, -2.18, -1.76, -1.16, 0.0, 0.63, 1.9, 1.8, 3.48, 4.46, 4.46, 4.24, 4.24, 3.82, 4.47, 4.47, 4.02, 2.97, 0.0, -4.02, -3.13, -0.0, 2.8, 3.9, 4.82, 4.92, 4.38, 3.6, 0.99, 1.4, 0.0, -2.42, 0.0, 0.0, -1.41, -4.09, -6.71, -9.11, -11.21, -10.65, -9.56, -6.95, -4.03, -1.83, -1.79, -1.58, -0.0, 0.0, 2.24, -0.0, -4.57, -4.66, -4.22, -3.16, -4.19, -6.0, -6.64, -6.64, -1.94, -1.94, -1.73, -1.73, -1.88, -1.7, -2.36, -2.36, -2.36, -2.32, -2.8, -3.0, -2.77, -3.42, -3.42, -3.4, -4.05, -4.03, -4.66, -5.06, -4.8, -4.76, -4.21, -4.02, -3.37, -3.53, -3.53, -2.84, -2.82, -2.8, -2.34, -2.32, -1.77, -2.21, -2.69, -2.96, -2.32, -2.36, -2.36, -2.16, -2.16, -2.32, -2.36, -2.4, -1.58, -0.54, 0.0, -0.0, 1.2, 2.58, 3.78, 5.6, 4.46, 4.66, 4.24, 4.47, 4.92, 4.47, 4.02, 0.0, -3.13, -0.0, 2.53, 4.57, 5.29, 4.92, 4.82, 4.0, 2.53, -1.13, -2.6, -2.47, 0.0, 0.0, 0.0, 0.0, -2.68, -5.36, -7.97, -8.95, -9.45, -7.96, -5.64, -3.11, 0.0, -0.0, 1.13, 3.35, 2.98, 0.85, -0.99, -2.6, -3.13, -3.35, -3.16, -4.84, -5.43, -5.43, -1.94, -1.94, -1.73, -1.73, -1.88, -1.7, -2.18, -2.36, -2.16, -2.32, -2.8, -3.0, -2.77, -2.96, -3.42, -3.4, -3.6, -4.03, -4.0, -4.63, -4.6, -4.57, -4.54, -4.02, -4.02, -3.5, -3.37, -2.84, -2.96, -2.82, -2.37, -2.34, -2.24, -2.28, -2.93, -2.89, -2.75, -2.26, -2.29, -2.29, -2.29, -2.29, -2.14, -2.32, -2.18, -1.76, -1.16, -0.95, -0.0, 1.61, 3.48, 4.29, 6.13, 5.81, 5.2, 5.2, 5.2, 5.36, 4.47, 4.0, 1.8, 0.0, 2.97, 4.57, 5.36, 4.92, 4.82, 4.0, 1.4, 0.0, -1.7, -2.58, -0.8, 0.79, 2.3, 3.17, 0.0, -4.81, -6.65, -7.89, -8.55, -8.3, -6.68, -3.79, -0.88, 1.79, 2.53, 2.53, 2.4, -0.0, -0.0, -2.23, -3.58, -4.15, -4.22, -4.19, -4.8, -4.8, -1.94, -1.94, -1.73, -1.73, -1.73, -1.7, -1.7, -2.36, -2.32, -2.32, -2.8, -3.0, -2.77, -2.96, -3.2, -3.4, -3.6, -3.37, -4.03, -4.2, -4.63, -4.8, -4.54, -4.72, -4.21, -4.02, -4.02, -3.5, -2.96, -2.82, -2.28, -2.37, -2.26, -2.26, -2.3, -3.3, -3.35, -3.35, -3.35, -2.86, -2.71, -2.37, -2.23, -2.29, -1.65, -1.67, -1.7, -1.76, -1.2, 0.0, 1.86, 4.0, 4.94, 5.21, 5.82, 4.98, 5.2, 4.92, 4.47, 3.6, 3.16, 2.8, 4.47, 5.36, 5.36, 4.38, 3.6, 2.21, 0.99, 0.0, -1.84, -2.4, -1.62, 0.0, 1.61, 3.28, 1.58, -3.7, -6.98, -7.6, -8.33, -8.0, -6.7, -4.65, -1.55, 1.9, 3.13, 2.4, 2.24, 2.68, 2.68, 1.34, -4.02, -5.29, -4.8, -4.8, -4.8, -4.8, -1.94, -1.94, -1.73, -1.73, -1.73, -1.7, -1.7, -2.36, -2.16, -2.32, -2.8, -2.77, -2.77, -2.96, -2.75, -3.4, -3.37, -3.37, -3.56, -4.0, -3.97, -4.6, -4.57, -4.54, -4.05, -4.05, -4.05, -4.05, -3.53, -2.96, -2.82, -2.37, -2.26, -2.34, -2.28, -2.9, -3.32, -4.0, -4.0, -3.32, -3.52, -2.86, -2.21, -1.71, -1.16, -1.16, -1.69, -2.29, -2.36, -1.58, 0.0, 2.12, 4.0, 5.29, 5.21, 5.6, 5.2, 5.36, 4.92, 4.47, 3.13, 3.13, 4.02, 4.92, 4.92, 5.2, 1.98, 0.0, 0.0, 0.0, 0.0, -1.65, -2.47, -2.47, -1.69, -1.55, -0.81, -2.54, -5.75, -6.2, -6.65, -6.72, -6.03, -4.74, -0.85, 3.13, 3.13, 2.68, 2.68, 3.58, 4.47, 4.02, -3.13, -4.92, -5.77, -5.86, -5.75, -5.75, -1.73, -1.73, -1.73, -1.73, -1.73, -1.7, -1.7, -2.36, -2.16, -2.32, -2.8, -2.77, -2.77, -2.96, -2.75, -3.4, -3.37, -3.37, -3.56, -3.35, -4.0, -3.97, -4.12, -4.08, -4.05, -4.08, -4.08, -4.08, -3.39, -3.53, -2.84, -2.82, -2.26, -2.34, -2.26, -2.84, -3.45, -4.0, -4.0, -3.97, -3.49, -3.52, -2.71, -3.32, -1.67, -1.09, -1.69, -2.83, -3.52, -2.77, -1.73, 0.0, 2.24, 4.0, 4.71, 4.65, 5.75, 5.81, 5.29, 4.98, 3.58, 2.84, 3.9, 4.47, 4.82, 5.2, 3.48, 0.0, -1.98, -0.98, 0.0, -0.85, -1.62, -4.13, -6.33, -7.13, -5.55, -3.4, -4.0, -3.93, -4.92, -5.57, -6.0, -4.0, 0.0, 3.47, 3.47, 2.97, 2.8, 3.9, 4.82, 4.47, 2.24, -4.38, -5.81, -6.55, -6.36, -6.36, -1.73, -1.73, -1.73, -1.73, -1.73, -1.7, -1.7, -2.36, -2.16, -2.32, -2.32, -2.77, -2.77, -2.96, -2.75, -3.4, -3.6, -3.37, -3.56, -3.35, -3.52, -3.97, -3.49, -3.45, -3.42, -4.08, -3.91, -3.91, -3.42, -3.57, -3.53, -2.96, -2.93, -2.9, -2.34, -2.82, -3.42, -3.78, -4.0, -3.78, -3.97, -3.97, -3.52, -3.37, -2.44, -1.67, -2.59, -3.56, -4.05, -3.84, -3.45, -2.82, 0.0, 2.12, 3.78, 4.43, 4.71, 4.65, 5.58, 5.21, 3.63, 2.68, 2.98, 3.13, 5.29, 6.02, 5.2, 1.55, -2.0, -3.79, -2.8, -0.8, 0.0, -1.6, -5.67, -8.06, -7.45, -4.13, -3.16, -2.98, -3.9, -4.3, -4.8, -4.11, -0.89, 2.98, 3.16, 1.8, 1.8, 2.53, 3.95, 4.47, 3.13, -3.13, -5.81, -7.11, -7.28, -7.28, -1.73, -1.73, -1.73, -1.73, -1.73, -1.7, -2.18, -2.36, -2.16, -2.32, -2.32, -2.49, -2.77, -2.96, -2.96, -2.92, -3.4, -3.37, -3.56, -3.35, -3.52, -3.32, -3.49, -3.45, -3.45, -3.42, -3.61, -3.45, -2.93, -3.42, -3.53, -3.5, -3.47, -3.44, -2.9, -2.8, -2.87, -3.49, -4.0, -4.0, -3.97, -3.97, -4.0, -4.03, -4.05, -5.06, -4.25, -3.42, -2.84, -3.48, -3.2, -2.84, -2.61, 0.0, 2.12, 3.43, 3.83, 4.12, 3.83, 4.29, 2.99, 2.0, 2.21, 3.58, 4.38, 5.29, 4.82, 3.48, 0.0, -4.29, -2.76, 0.0, 0.85, 0.78, -0.82, -5.67, -7.11, -5.48, -4.25, -3.63, -3.13, -3.58, -3.82, -3.82, -1.34, 1.2, 1.84, 1.49, 1.49, 2.41, 3.6, 3.95, 3.58, 1.79, -4.47, -6.66, -7.45, -7.45, -1.73, -1.73, -1.73, -1.73, -1.73, -1.7, -2.18, -2.36, -2.16, -2.32, -2.32, -2.49, -2.77, -2.96, -2.96, -2.92, -3.4, -3.37, -3.37, -3.56, -3.35, -3.52, -3.49, -3.49, -3.45, -3.45, -3.45, -3.32, -3.25, -3.45, -3.89, -4.05, -4.02, -3.47, -3.47, -2.8, -2.84, -3.45, -3.52, -3.35, -3.52, -3.97, -4.0, -4.0, -4.66, -4.63, -3.94, -2.21, -1.7, -1.6, -1.84, -2.23, -2.22, -2.23, -1.16, 1.7, 2.84, 3.49, 3.49, 3.12, 2.76, 2.23, 3.13, 3.58, 4.47, 4.92, 4.47, 3.6, 0.0, 0.0, 0.0, 1.4, 0.0, 0.0, 0.0, -2.39, -6.31, -6.57, -5.63, -4.4, -3.07, -2.68, -2.68, -3.07, -2.24, -0.0, 0.8, 0.8, -0.0, 1.74, 3.22, 4.15, 3.95, 2.68, -2.68, -5.36, -6.66, -6.66, -1.73, -1.73, -1.73, -1.73, -1.73, -1.88, -2.18, -2.36, -2.16, -2.32, -2.32, -2.49, -2.77, -2.77, -2.96, -2.92, -2.92, -2.92, -3.37, -3.56, -3.35, -3.52, -3.32, -3.49, -3.45, -3.45, -3.45, -3.49, -3.97, -4.01, -3.94, -3.91, -4.08, -3.53, -3.5, -2.93, -2.96, -3.42, -3.32, -3.35, -3.35, -3.52, -3.52, -4.0, -3.97, -3.94, -3.42, -2.25, -1.78, -1.12, -1.19, -1.58, -1.8, -1.8, -1.13, -0.53, 0.0, 2.15, 2.51, 2.84, 2.53, 3.39, 4.02, 4.02, 4.92, 5.29, 5.36, 4.02, 2.53, 1.55, 3.16, 2.21, 0.0, -2.57, -1.56, -0.81, -2.34, -4.43, -4.43, -3.6, -2.26, -1.8, -2.24, -2.54, -2.12, -1.2, 0.0, 0.0, 0.0, 0.0, 1.98, 3.22, 3.2, 3.04, 1.34, -4.02, -5.81, -5.81, -1.73, -1.73, -1.73, -1.73, -1.73, -2.4, -2.18, -2.36, -2.36, -2.32, -2.32, -2.32, -2.77, -2.77, -2.96, -2.75, -2.92, -2.92, -2.89, -3.37, -3.35, -3.52, -3.32, -3.49, -3.3, -3.45, -3.45, -3.45, -4.12, -4.12, -3.94, -3.45, -3.45, -3.42, -3.39, -2.84, -2.96, -2.87, -3.49, -3.35, -3.35, -3.35, -3.35, -3.52, -3.32, -3.49, -3.42, -2.9, -2.25, -2.3, -1.71, -1.65, -1.73, -1.58, -1.13, -0.61, 0.0, 0.0, 1.79, 2.6, 4.66, 4.24, 4.47, 4.66, 4.82, 5.29, 5.29, 4.82, 4.47, 4.0, 3.58, 1.55, -1.32, -4.25, -3.95, -0.79, 0.77, 0.0, -0.87, -2.2, -2.72, -2.35, -2.53, -2.53, -1.9, -1.24, -0.65, -0.61, -0.79, 0.0, 1.34, 1.98, 2.53, 2.54, 2.24, -2.24, -4.92, -4.92, -1.73, -1.73, -1.73, -1.73, -2.2, -2.4, -2.18, -2.36, -2.36, -2.16, -2.32, -2.32, -2.77, -2.77, -2.96, -2.75, -2.92, -2.92, -2.89, -2.89, -3.56, -3.35, -3.52, -3.32, -3.49, -3.45, -3.45, -3.45, -4.12, -4.12, -3.45, -3.45, -3.45, -3.45, -3.42, -2.87, -2.84, -2.87, -3.3, -3.35, -3.37, -2.89, -2.71, -2.86, -2.86, -2.83, -2.93, -2.9, -2.9, -2.93, -2.83, -2.89, -2.29, -1.7, -1.23, -1.13, -0.61, 0.0, 0.54, 1.58, 3.13, 4.92, 4.66, 4.66, 4.66, 4.66, 4.34, 4.34, 3.58, 3.58, 2.98, 1.7, 0.0, -2.41, -3.25, -0.8, 1.56, 3.28, 1.58, -0.81, -3.6, -4.46, -3.79, -2.98, -1.49, -1.33, -0.59, -0.96, -0.96, 0.0, 0.0, 0.0, 1.2, 1.9, 2.24, 0.95, -3.95, -3.95, -2.2, -2.2, -2.2, -2.2, -2.2, -2.4, -2.18, -2.18, -2.36, -2.16, -2.32, -2.32, -2.29, -2.77, -2.77, -2.96, -2.75, -2.92, -2.92, -2.89, -3.56, -3.35, -3.52, -3.32, -3.49, -3.3, -3.45, -3.45, -3.45, -3.45, -3.45, -3.45, -3.45, -3.45, -3.42, -2.9, -2.87, -2.87, -2.93, -3.35, -3.37, -2.73, -2.23, -1.71, -1.69, -1.67, -2.28, -2.25, -2.77, -3.45, -3.49, -3.35, -2.89, -2.29, -1.67, -1.19, -0.57, 0.0, 0.0, 1.2, 1.9, 3.13, 4.47, 4.38, 3.9, 4.02, 3.58, 3.58, 3.58, 3.58, 4.0, 3.16, 1.32, 0.0, -0.8, -1.61, 0.0, 1.63, 0.8, -0.7, -3.61, -5.21, -5.06, -3.64, -2.29, -2.29, -1.6, -0.88, -0.88, 0.0, 0.0, 0.0, 0.0, 1.0, 1.26, 1.79, -1.9, -1.9, -2.44, -2.44, -2.2, -2.2, -2.2, -2.4, -2.18, -2.18, -2.36, -2.16, -2.32, -2.32, -2.49, -2.77, -2.77, -2.96, -2.75, -2.92, -2.92, -2.89, -3.37, -3.35, -3.35, -3.52, -3.49, -3.49, -3.45, -3.45, -3.45, -3.45, -3.45, -3.45, -3.45, -3.27, -3.42, -3.42, -2.87, -2.87, -2.77, -3.32, -3.37, -2.75, -1.76, -1.75, -1.16, -1.67, -2.28, -2.25, -2.77, -3.45, -3.97, -4.03, -3.37, -2.75, -2.29, -1.67, -1.07, -0.55, 0.0, 0.61, 1.2, 1.9, 4.02, 4.34, 3.9, 4.02, 3.58, 4.02, 4.02, 3.58, 3.39, 3.35, 2.66, 1.16, 0.0, -2.45, -3.23, -2.33, -2.37, -2.89, -2.93, -4.46, -5.09, -4.46, -3.11, -3.0, -2.35, -1.72, -0.89, 0.0, 0.0, 0.0, -1.2, 0.0, -0.0, 0.0, 0.0, 0.0, -2.44, -2.44, -2.2, -2.2, -2.2, -2.4, -2.18, -2.18, -2.36, -2.36, -2.32, -2.32, -2.32, -2.29, -2.77, -2.96, -2.96, -2.92, -2.92, -2.89, -3.37, -3.56, -3.35, -3.52, -3.32, -3.49, -3.45, -3.45, -3.45, -3.45, -3.45, -3.45, -3.45, -3.45, -3.45, -3.42, -2.9, -2.87, -2.9, -3.49, -3.37, -2.96, -2.16, -2.51, -1.09, -1.16, -2.87, -3.39, -4.08, -3.94, -4.0, -3.37, -3.4, -2.96, -2.77, -2.29, -1.67, -1.16, 0.0, 0.0, 0.51, 1.16, 1.8, 3.58, 3.47, 4.47, 4.47, 4.02, 4.02, 3.39, 3.39, 3.6, 1.52, 0.82, 0.0, -0.79, -3.32, -4.98, -4.95, -4.24, -2.81, -2.97, -4.01, -4.22, -3.16, -2.4, -2.47, -1.63, -1.63, -0.83, -0.78, -0.89, -0.96, -1.58, 0.0, 0.0, 0.0, 0.0, -2.44, -2.44, -2.2, -2.2, -2.2, -2.4, -2.4, -2.18, -2.36, -2.36, -2.16, -2.32, -2.32, -2.29, -2.77, -2.96, -2.96, -2.75, -2.92, -3.4, -3.37, -3.56, -3.35, -3.52, -3.52, -3.49, -3.49, -3.45, -3.45, -3.45, -3.45, -3.45, -3.45, -3.45, -3.45, -3.45, -3.42, -2.9, -2.9, -3.45, -3.56, -3.42, -2.82, -3.08, -3.45, -2.77, -4.17, -5.17, -5.89, -5.06, -4.03, -3.4, -3.42, -2.96, -2.77, -2.29, -2.32, -1.16, -0.61, 0.0, 0.0, 0.59, 1.2, 3.2, 4.02, 4.24, 3.9, 4.02, 3.47, 2.98, 2.98, 2.21, 0.0, 0.0, 2.4, 2.33, 0.0, -3.23, -5.67, -4.94, -3.66, -2.88, -2.99, -3.16, -2.23, -1.74, -1.66, -1.72, -1.73, -1.65, -1.55, -0.89, -0.89, -1.8, -2.4, -1.58, -1.58, 0.0, -2.44, -2.44, -2.2, -2.2, -2.2, -2.4, -2.4, -2.18, -2.36, -2.36, -2.36, -2.32, -2.32, -2.49, -2.77, -2.77, -2.96, -2.75, -2.92, -3.4, -3.37, -3.37, -3.35, -3.35, -3.52, -3.32, -3.49, -3.45, -3.45, -3.45, -3.45, -3.45, -3.45, -3.45, -3.45, -3.45, -3.45, -3.42, -2.9, -3.45, -3.52, -3.42, -3.72, -4.12, -5.38, -6.33, -5.86, -6.29, -6.34, -5.09, -4.08, -3.42, -2.96, -2.96, -2.77, -2.29, -2.32, -1.7, -1.07, -0.55, 0.0, 0.0, 1.41, 2.53, 4.02, 4.47, 3.58, 4.02, 3.39, 2.84, 1.98, 1.4, 0.0, 0.0, 1.16, 3.53, 2.43, 0.0, -3.19, -4.71, -4.5, -3.61, -2.31, -2.3, -1.9, -0.85, -0.88, -1.6, -1.73, -2.4, -2.54, -1.75, -1.65, -1.72, -2.0, -2.53, -2.53, -2.53, -2.22, -2.22, -2.44, -2.2, -2.2, -2.4, -2.4, -2.18, -2.18, -2.36, -2.36, -2.16, -2.32, -2.32, -2.77, -2.77, -2.96, -2.75, -2.92, -3.4, -3.37, -3.37, -3.56, -3.35, -3.52, -3.32, -3.49, -3.49, -3.45, -3.45, -3.45, -3.45, -3.45, -3.45, -3.45, -3.45, -3.45, -3.45, -3.42, -3.27, -3.32, -3.4, -4.1, -4.75, -5.72, -6.33, -5.64, -5.26, -4.69, -3.84, -3.85, -3.45, -3.42, -3.42, -2.77, -2.77, -1.67, -1.7, -1.16, -0.61, -0.63, 0.0, 0.59, 1.8, 3.2, 4.02, 4.47, 4.02, 2.98, 2.84, 1.98, 0.99, 0.0, -0.81, -1.32, 0.0, 0.81, 1.56, 0.8, -1.65, -2.98, -2.29, -1.6, -0.7, -0.73, -0.81, -0.82, -1.63, -1.65, -2.31, -2.44, -2.35, -2.44, -2.54, -2.76, -3.16, -3.16, -3.16, -2.22, -2.22, -2.44, -2.2, -2.2, -2.2, -2.4, -2.4, -2.18, -2.36, -2.36, -2.36, -2.32, -2.32, -2.77, -2.77, -2.96, -2.96, -2.92, -3.4, -3.6, -3.37, -3.56, -3.35, -3.52, -3.52, -3.32, -3.49, -3.49, -3.45, -3.45, -3.45, -3.45, -3.45, -3.45, -3.45, -3.45, -3.45, -3.45, -3.45, -3.49, -3.37, -4.08, -4.47, -5.09, -5.04, -4.76, -3.61, -2.89, -3.0, -3.04, -3.45, -3.45, -3.42, -2.96, -2.77, -2.16, -1.84, -1.7, -1.19, -0.55, 0.0, 0.0, 0.0, 3.2, 4.02, 4.47, 4.24, 3.35, 2.84, 2.21, 1.2, 0.0, -0.88, -1.73, -1.6, 0.0, 1.58, 3.13, 3.23, 1.68, 1.49, 0.73, 0.0, 0.0, -0.71, -1.65, -1.75, -2.31, -2.44, -2.35, -2.47, -3.21, -2.44, -2.51, -2.8, -2.8, -2.8, -2.22, -2.22, -2.22, -2.44, -2.2, -2.2, -2.4, -2.4, -2.18, -2.18, -2.36, -2.36, -2.32, -2.8, -3.0, -2.77, -2.96, -2.96, -2.75, -3.4, -3.4, -3.37, -3.37, -3.56, -3.35, -3.52, -3.52, -3.49, -3.49, -3.49, -3.45, -3.45, -3.45, -3.45, -3.45, -3.45, -3.49, -3.49, -3.45, -3.45, -3.3, -3.35, -4.05, -4.73, -5.1, -5.32, -4.6, -3.61, -3.01, -2.75, -3.0, -2.8, -2.8, -2.8, -2.29, -2.32, -2.32, -1.84, -1.7, -1.19, -0.55, -0.57, 0.0, 0.59, 3.16, 3.82, 4.47, 3.9, 3.6, 2.98, 2.53, 1.9, 0.0, 0.0, 0.0, 0.0, 0.0, 0.77, 2.41, 4.91, 6.28, 6.4, 4.24, 2.14, 0.0, -0.74, -2.12, -2.44, -3.15, -3.15, -3.3, -3.21, -3.21, -2.57, -2.57, -3.27, -3.27, -3.27, -2.22, -2.22, -2.22, -2.44, -2.2, -2.2, -2.2, -2.4, -2.4, -2.18, -2.36, -2.36, -2.32, -2.8, -3.0, -2.77, -2.96, -2.96, -2.75, -3.4, -3.4, -3.6, -3.37, -3.56, -3.35, -3.52, -3.52, -3.32, -3.49, -3.49, -4.16, -4.16, -4.16, -4.16, -4.16, -4.16, -3.49, -3.49, -3.49, -3.45, -3.3, -3.52, -4.05, -4.73, -5.1, -5.08, -4.63, -3.94, -3.49, -2.89, -2.96, -2.32, -1.67, -1.67, -1.8, -1.14, -1.14, -1.16, -0.59, -0.54, 0.0, 0.0, 0.0, 1.11, 2.51, 3.72, 3.82, 3.39, 3.39, 3.13, 2.68, 2.68, 1.2, 1.13, 1.08, 0.96, 0.83, 0.82, 1.64, 4.93, 7.13, 7.0, 4.95, 2.91, 1.44, 0.0, -0.74, -2.23, -3.45, -3.52, -3.52, -3.32, -3.49, -3.21, -3.21, -3.32, -3.32, -3.32, -2.22, -2.22, -2.22, -2.22, -2.44, -2.2, -2.2, -2.4, -2.4, -2.18, -2.36, -2.36, -2.32, -2.8, -3.0, -2.77, -2.96, -2.96, -2.96, -3.4, -3.4, -3.6, -3.37, -3.37, -3.56, -3.35, -3.52, -3.52, -3.49, -3.97, -3.97, -3.97, -4.16, -4.16, -3.97, -3.97, -3.97, -3.49, -3.49, -3.49, -3.3, -3.49, -4.03, -4.05, -4.46, -5.09, -5.06, -4.63, -4.2, -3.56, -2.75, -2.29, -1.8, -1.14, -0.58, -0.53, -0.59, 0.0, 0.0, 0.0, 0.0, 0.55, 1.23, 1.76, 2.84, 3.16, 3.2, 3.58, 3.58, 2.4, 2.68, 2.4, 1.9, 0.99, 0.87, 0.88, 0.89, 0.85, 2.39, 4.25, 4.87, 4.76, 3.98, 3.47, 2.91, 1.41, 0.0, -1.5, -2.47, -4.34, -4.34, -4.34, -4.2, -3.88, -4.07, -4.07, -4.07, -4.07, -2.22, -2.22, -2.22, -2.22, -2.22, -2.44, -2.2, -2.2, -2.4, -2.4, -2.36, -2.36, -2.36, -2.8, -2.8, -3.0, -2.77, -2.96, -2.96, -3.4, -3.4, -3.4, -3.6, -3.37, -3.56, -3.35, -3.52, -3.52, -3.32, -3.97, -3.97, -3.97, -3.97, -3.97, -3.97, -3.97, -3.97, -3.97, -3.49, -3.49, -3.49, -3.49, -3.52, -4.05, -4.46, -5.1, -5.08, -4.66, -4.0, -3.81, -3.42, -2.77, -2.32, -1.23, -0.58, -0.53, 0.0, 0.0, 0.0, 0.0, 0.55, 0.63, 1.11, 2.23, 2.84, 2.84, 2.8, 2.21, 2.21, 0.0, 1.58, 2.4, 1.9, 1.4, 1.13, 0.88, 0.96, 1.73, 3.45, 4.2, 3.39, 3.14, 3.95, 4.44, 3.47, 1.4, 0.0, -0.71, -2.97, -4.5, -5.64, -5.21, -5.21, -4.83, -4.83, -3.88, -3.88, -3.88, -2.48, -2.48, -2.48, -2.22, -2.22, -2.44, -2.2, -2.2, -2.4, -2.4, -2.18, -2.36, -2.82, -2.8, -2.8, -3.0, -2.77, -2.96, -2.96, -3.42, -3.4, -3.4, -3.6, -3.37, -3.56, -3.56, -3.35, -3.52, -3.52, -3.97, -3.97, -3.97, -3.97, -3.97, -3.97, -3.97, -3.97, -3.97, -3.32, -3.32, -3.49, -3.49, -3.52, -4.03, -4.46, -4.71, -4.69, -4.66, -4.0, -4.05, -3.64, -2.77, -2.29, -1.65, -0.57, -0.53, 0.0, 0.0, 0.0, 0.55, 0.55, 0.63, 1.27, 1.84, 2.53, 2.21, 2.4, 1.9, 0.0, 0.0, 0.0, 0.0, 2.4, 2.21, 1.98, 1.8, 1.99, 1.98, 2.51, 2.44, 1.62, 2.51, 3.96, 4.76, 3.58, 1.4, 0.0, 0.0, -0.74, -2.99, -4.71, -5.1, -4.42, -3.55, -3.2, -3.09, -3.09, -3.09, -2.23, -2.23, -2.23, -2.22, -2.22, -2.22, -2.2, -2.2, -2.4, -2.4, -2.18, -2.36, -2.82, -2.8, -2.8, -3.0, -2.77, -2.96, -2.96, -3.42, -3.4, -3.4, -3.4, -3.6, -3.37, -3.56, -3.35, -3.52, -4.0, -4.0, -3.97, -3.97, -3.97, -3.97, -3.97, -3.97, -3.97, -3.97, -3.52, -3.52, -3.32, -3.49, -3.49, -4.03, -4.05, -4.46, -4.71, -4.69, -4.69, -4.05, -4.08, -3.42, -3.0, -1.76, -1.1, -0.56, -0.57, 0.0, 0.0, 0.0, 0.0, 0.63, 0.66, 1.16, 1.2, 1.9, 2.0, 2.0, 1.0, 0.0, -1.2, -1.0, 0.0, 2.4, 2.21, 1.98, 2.0, 1.99, 1.72, 1.65, 0.81, 0.85, 2.49, 2.37, 2.35, 0.0, 2.54, 3.47, 2.0, 0.0, -3.22, -3.16, -1.0, 0.0, 0.0, -0.88, -0.88, -0.88, -2.23, -2.23, -2.23, -2.48, -2.22, -2.22, -2.44, -2.2, -2.4, -2.4, -2.18, -2.82, -2.82, -3.04, -2.8, -3.0, -3.0, -2.77, -2.96, -3.42, -3.42, -3.4, -3.4, -3.6, -3.37, -3.56, -3.56, -3.52, -4.0, -4.0, -4.0, -4.2, -3.97, -3.97, -3.97, -3.97, -3.97, -4.0, -3.52, -3.52, -3.52, -3.49, -3.49, -4.0, -4.05, -4.32, -4.46, -4.45, -4.45, -4.46, -4.08, -4.1, -3.45, -2.29, -1.73, -1.18, -1.1, -0.57, -0.58, 0.0, 0.0, 0.0, 0.0, 0.61, 0.65, 0.71, 1.26, 1.26, 1.58, 0.0, 0.0, -1.2, -1.58, 0.0, 2.4, 2.21, 1.13, 2.0, 0.88, 0.0, 0.0, 0.0, 0.0, 0.0, 0.0, 0.0, 2.97, 4.84, 3.04, 1.0, -0.99, -1.26, 1.79, 2.24, 1.58, 0.0, 0.0, 0.0, -2.23, -2.23, -1.8, -1.8, -2.22, -2.22, -2.44, -2.2, -2.4, -2.4, -2.18, -2.82, -2.82, -3.04, -2.8, -2.8, -3.0, -2.77, -2.96, -3.42, -3.42, -3.4, -3.4, -3.6, -3.6, -3.37, -3.56, -3.8, -4.0, -4.0, -4.0, -4.0, -4.0, -4.0, -4.0, -4.0, -4.0, -4.0, -3.52, -3.52, -3.52, -3.52, -3.49, -3.52, -4.03, -3.83, -4.73, -4.71, -4.71, -4.73, -4.1, -3.85, -3.45, -3.0, -2.29, -2.26, -1.73, -1.1, -1.12, -0.58, -0.54, 0.0, 0.0, 0.0, 0.0, 0.0, 0.0, 0.0, 1.58, 1.0, 0.0, -1.2, -1.9, 0.0, 1.26, 1.2, 0.99, 0.98, 0.0, -0.83, -0.84, 0.0, 0.0, -1.57, -2.09, -1.4, 3.13, 5.34, 3.95, 2.0, 0.85, 2.0, 2.68, 3.13, 2.68, 2.24, 2.24, 2.24, -2.23, -2.23, -1.8, -1.8, -2.22, -2.22, -2.44, -2.2, -2.4, -2.4, -2.4, -2.82, -2.82, -2.82, -3.04, -2.8, -3.0, -3.0, -2.77, -3.42, -3.42, -3.64, -3.4, -3.4, -3.6, -3.37, -3.56, -4.03, -3.8, -4.0, -4.0, -4.0, -4.0, -4.0, -4.0, -4.0, -4.0, -4.0, -3.52, -3.52, -3.52, -3.52, -3.32, -3.52, -3.56, -3.83, -4.08, -4.73, -4.73, -4.47, -4.1, -4.12, -3.47, -3.04, -2.8, -2.49, -2.29, -1.73, -1.76, -1.23, -1.16, -0.54, -0.55, -0.59, 0.0, 0.0, 0.0, 0.0, 0.0, 0.0, 0.0, 0.0, 0.0, 0.0, 0.0, 0.0, 0.0, -0.98, -1.72, -2.51, -1.73, -0.84, -0.8, -0.81, -2.16, -1.4, 3.13, 4.8, 4.66, 2.97, 2.24, 2.68, 3.13, 3.13, 3.13, 2.4, 2.4, 2.4, -2.51, -2.51, -1.8, -1.8, -2.48, -2.22, -2.44, -2.2, -2.4, -2.4, -2.4, -2.82, -2.82, -2.82, -3.04, -2.8, -3.0, -3.0, -2.77, -3.42, -3.42, -3.42, -3.4, -3.4, -3.6, -3.6, -3.37, -4.03, -4.03, -4.0, -4.0, -4.0, -4.0, -4.0, -4.0, -4.0, -4.0, -4.0, -3.52, -3.52, -3.35, -3.52, -3.52, -3.52, -3.35, -3.6, -4.08, -4.47, -4.47, -4.75, -4.12, -3.84, -3.22, -2.82, -2.82, -2.32, -2.32, -2.29, -2.29, -1.65, -1.67, -1.16, -1.19, -0.57, -0.59, -0.61, 0.0, 0.0, 0.0, 0.0, 0.0, 0.0, 0.0, 0.0, 0.0, -1.58, -1.4, -2.95, -3.33, -3.55, -3.55, -2.51, -0.79, 0.0, -1.61, -0.96, 3.58, 4.54, 4.84, 3.84, 2.6, 2.54, 2.97, 2.97, 2.8, 1.9, 1.9, 1.9, -2.23, -2.23, -1.8, -1.8, -2.48, -2.22, -2.44, -2.2, -2.4, -2.4, -2.84, -3.08, -2.82, -2.82, -3.04, -3.04, -2.8, -3.0, -3.0, -3.42, -3.42, -3.42, -3.64, -3.4, -3.4, -3.6, -3.37, -4.03, -4.03, -4.03, -4.0, -4.0, -4.0, -4.0, -4.0, -4.0, -4.0, -3.8, -3.35, -3.35, -3.35, -3.35, -3.52, -3.52, -3.52, -3.37, -4.08, -4.08, -4.47, -4.47, -4.12, -3.84, -3.49, -3.08, -3.08, -2.36, -2.32, -2.8, -3.0, -2.32, -1.8, -1.67, -1.16, -1.08, -1.27, -1.13, -0.61, 0.0, 0.0, 0.0, 0.0, 0.0, 0.0, 0.0, 0.0, -1.2, -2.53, -3.79, -4.58, -4.42, -4.16, -3.6, -2.57, -1.64, -1.64, -1.13, 2.53, 3.72, 4.81, 4.19, 2.84, 2.53, 2.53, 2.98, 2.21, 2.21, 2.21, 2.21, -2.23, -2.23, -1.84, -2.23, -2.23, -2.22, -2.44, -2.44, -2.2, -2.4, -2.84, -2.84, -2.82, -2.82, -2.82, -3.04, -2.8, -3.0, -3.0, -3.21, -3.42, -3.42, -3.42, -3.4, -3.4, -3.6, -3.6, -3.81, -4.03, -4.03, -4.03, -3.8, -3.8, -3.8, -3.8, -3.8, -3.8, -3.35, -3.35, -3.35, -3.56, -3.35, -3.35, -3.52, -3.52, -3.37, -3.64, -4.1, -4.1, -4.47, -4.12, -3.49, -3.49, -3.08, -2.84, -2.4, -2.36, -2.54, -2.8, -2.8, -2.32, -2.32, -1.84, -1.73, -1.76, -1.13, -1.33, -0.53, 0.0, 0.0, 0.0, 0.0, 0.0, 0.0, -1.58, -2.21, -3.35, -3.79, -4.29, -4.58, -4.95, -4.68, -4.34, -3.39, -2.41, -3.16, 0.79, 4.01, 4.43, 4.46, 3.16, 2.41, 2.41, 2.53, 2.53, 1.74, 1.74, 1.74, -2.23, -2.23, -2.23, -2.23, -2.23, -2.22, -2.22, -2.44, -2.2, -2.4, -2.84, -2.84, -3.08, -2.82, -2.82, -3.04, -2.8, -2.8, -3.45, -3.45, -3.42, -3.42, -3.42, -3.4, -3.4, -3.6, -3.6, -3.81, -4.03, -4.03, -4.03, -4.03, -4.03, -4.03, -4.03, -4.03, -4.03, -3.56, -3.56, -3.56, -3.56, -3.56, -3.35, -3.52, -3.52, -3.56, -3.4, -4.1, -4.1, -4.75, -4.12, -3.49, -3.49, -2.84, -2.84, -2.84, -2.36, -2.36, -2.82, -3.04, -3.04, -2.8, -2.32, -2.18, -2.44, -1.8, -1.13, -1.16, -0.65, -0.99, 0.0, 0.0, 0.0, 0.0, -2.21, -2.98, -3.35, -3.58, -4.43, -4.58, -4.58, -4.95, -4.96, -4.92, -3.85, -3.72, -0.99, 2.4, 3.72, 3.79, 3.48, 2.53, 1.8, 1.98, 1.13, 1.13, 1.13, 1.13, -2.23, -2.23, -2.23, -2.23, -2.23, -2.48, -2.22, -2.44, -2.44, -2.4, -2.84, -2.84, -3.08, -2.82, -2.82, -3.04, -3.04, -2.8, -3.45, -3.45, -3.42, -3.42, -3.42, -3.64, -3.4, -3.4, -3.6, -4.05, -3.81, -4.03, -4.03, -4.03, -4.03, -4.03, -4.03, -4.03, -4.03, -3.56, -3.56, -3.56, -3.56, -3.56, -3.56, -3.35, -3.35, -3.56, -3.4, -4.1, -4.1, -4.45, -4.12, -3.83, -3.49, -3.22, -2.84, -2.84, -2.84, -2.82, -2.82, -2.82, -3.22, -3.47, -3.04, -2.36, -2.4, -2.22, -1.8, -1.84, -1.16, -1.16, 0.0, 0.0, 0.0, 0.0, -1.4, -2.21, -2.98, -2.98, -3.93, -4.43, -4.29, -5.24, -5.49, -5.76, -4.87, -4.34, -4.02, -0.0, 2.4, 2.53, 2.53, 1.66, 0.79, 0.98, 1.13, 1.13, 1.13, 1.13, -2.23, -2.23, -2.23, -2.23, -2.23, -2.48, -2.22, -2.44, -2.44, -2.2, -2.84, -2.84, -2.84, -3.08, -2.82, -2.82, -3.04, -2.8, -3.45, -3.45, -3.45, -3.42, -3.42, -3.42, -3.4, -3.4, -3.6, -4.05, -4.05, -3.81, -4.03, -4.03, -4.03, -4.03, -4.03, -4.03, -4.03, -3.56, -3.56, -3.56, -3.56, -3.56, -3.56, -3.56, -3.35, -3.56, -3.4, -3.42, -3.85, -4.12, -4.45, -4.12, -3.49, -3.22, -3.12, -3.12, -2.84, -2.82, -2.82, -2.82, -3.49, -3.49, -3.47, -3.04, -2.82, -2.86, -2.48, -2.23, -1.84, -1.61, -0.61, 0.0, 0.0, 0.0, 0.0, -1.2, -2.8, -3.9, -4.4, -4.89, -5.06, -6.01, -5.76, -6.15, -5.51, -4.8, -5.49, -3.9, -0.0, 0.88, 0.88, 0.88, 0.88, 0.79, 0.87, -0.0, -0.0, -0.0, -2.53, -2.53, -2.23, -2.51, -2.23, -2.48, -2.22, -2.44, -2.44, -2.86, -2.84, -2.84, -2.84, -3.08, -2.82, -2.82, -3.04, -3.47, -3.22, -3.45, -3.45, -3.42, -3.42, -3.42, -3.64, -3.4, -3.4, -4.05, -4.05, -3.81, -3.81, -4.03, -4.03, -4.03, -4.03, -4.03, -4.03, -4.03, -4.03, -3.56, -3.56, -3.56, -3.56, -3.56, -3.56, -3.56, -3.6, -3.42, -3.85, -4.45, -4.42, -4.12, -3.49, -3.49, -3.12, -3.12, -2.84, -3.08, -2.82, -3.47, -3.49, -3.49, -3.49, -3.47, -3.22, -2.84, -2.86, -2.86, -2.51, -2.23, -1.61, -1.16, 0.0, 0.0, 0.0, -1.4, -2.21, -3.9, -4.57, -5.58, -6.44, -6.73, -6.95, -6.7, -5.63, -4.8, -4.96, -5.6, -3.9, -0.98, -0.0, -0.0, -0.0, -0.0, -0.0, -0.0, -0.0, -0.0, -2.53, -2.53, -2.23, -2.51, -2.23, -2.48, -2.22, -2.44, -2.44, -2.86, -2.84, -2.84, -2.84, -3.08, -2.82, -2.82, -3.04, -3.47, -3.22, -3.45, -3.45, -3.42, -3.42, -3.42, -3.64, -3.4, -3.4, -4.05, -4.05, -3.81, -3.81, -4.03, -4.03, -4.03, -4.03, -4.03, -4.03, -4.03, -4.03, -3.56, -3.56, -3.56, -3.56, -3.56, -3.56, -3.56, -3.6, -3.42, -3.85, -4.45, -4.42, -4.12, -3.49, -3.49, -3.12, -3.12, -2.84, -3.08, -2.82, -3.47, -3.49, -3.49, -3.49, -3.47, -3.22, -2.84, -2.86, -2.86, -2.51, -2.23, -1.61, -1.16, 0.0, 0.0, 0.0, -1.4, -3.39, -3.9, -4.57, -5.58, -6.44, -7.06, -7.35, -7.18, -6.57, -5.76, -4.83, -4.95, -5.51, -4.34, -2.23, -0.98, -0.0, -0.0, -0.0, -0.0, -0.0, -0.0]}]